GFSFLT2_sfc_temp_000.txt.gz
Temp
72 73 74 60 56 62 51 44 47 50 58 69 71 71 71 74 74 76 77 78 77 78 77 77 77 76 76 74 74 73 74 73
72 71 70 69 67 57 49 43 41 49 51 57 63 68 68 69 72 75 77 78 78 78 78 78 79 79 77 77 75 74 74 72
65 65 66 60 57 54 54 49 46 45 50 61 67 69 70 70 75 76 76 77 77 77 79 79 80 80 78 77 76 74 73 72
59 65 69 70 63 60 58 48 46 49 53 68 70 69 69 71 75 72 74 76 77 77 78 78 78 80 79 78 77 77 74 72
53 57 59 61 59 55 53 51 47 50 54 67 65 67 67 67 69 70 71 70 74 75 76 76 77 78 79 79 78 78 75 70
56 60 61 58 62 59 58 49 50 52 59 65 67 66 65 67 68 68 70 70 71 72 74 76 76 76 77 78 79 77 74 70
68 63 64 65 64 60 59 58 58 63 59 67 68 67 67 70 68 68 67 68 70 72 72 71 71 72 75 77 76 75 72 71
63 66 65 65 66 64 63 61 61 61 60 68 68 67 67 68 68 68 68 71 71 71 71 70 71 71 74 74 75 74 72 71
55 58 58 52 66 64 64 63 65 59 67 67 65 68 69 67 69 71 71 70 68 69 70 71 70 71 71 73 73 71 71 71
57 50 44 63 65 72 68 65 65 64 67 67 68 68 67 68 70 70 69 68 68 69 70 70 71 72 71 71 71 70 70 70
46 46 53 59 62 65 66 61 64 63 65 67 68 68 66 66 70 69 70 70 70 71 70 68 69 70 70 68 69 69 69 68
44 46 47 55 61 65 63 57 63 63 63 64 65 61 60 64 69 69 69 70 70 71 70 70 68 69 68 67 68 68 68 68
46 45 51 58 61 64 58 54 60 61 64 66 61 63 67 68 68 69 69 70 71 70 69 68 67 67 66 66 67 68 68 69
47 46 45 60 61 59 60 60 61 63 61 62 62 65 66 68 68 69 69 70 71 69 69 67 67 68 65 65 66 67 67 67
48 49 55 57 55 59 62 66 64 62 63 65 65 65 67 66 67 66 66 67 68 69 67 66 66 67 64 63 66 66 65 64
52 56 55 56 59 61 62 61 63 63 63 65 63 65 65 67 67 65 65 65 66 66 63 62 63 64 64 65 65 64 63 63
52 54 58 60 59 59 61 63 64 64 64 63 63 63 64 62 63 63 63 63 64 63 62 62 63 63 64 65 65 63 63 62
49 56 57 55 60 62 62 62 63 63 63 63 63 61 63 61 61 62 63 63 62 61 62 62 62 63 63 65 66 64 63 61
52 55 57 59 62 65 62 61 63 63 61 60 61 61 63 61 60 60 62 63 62 61 62 62 62 63 64 63 63 62 62 60

GFSFLT2_sfc_temp_003.txt.gz
Temp
81 84 84 75 70 84 73 66 67 71 72 79 84 84 85 86 87 86 87 88 87 87 87 85 84 83 83 82 82 82 82 82
82 85 84 80 83 70 70 59 57 66 67 73 80 83 86 83 85 87 87 87 89 88 87 87 87 86 85 84 83 84 83 83
77 76 76 76 74 73 77 71 64 61 68 81 82 85 87 86 87 88 87 86 89 88 88 88 88 88 86 85 84 84 84 83
71 79 84 84 78 77 70 63 68 69 71 87 84 88 89 90 89 89 87 86 87 87 87 88 87 88 88 87 87 86 85 83
65 75 78 75 79 80 80 77 68 65 71 84 82 81 83 83 87 83 83 84 86 87 85 86 87 86 88 88 89 89 86 84
63 67 75 71 74 77 76 70 70 70 75 82 83 79 84 83 83 83 81 82 83 84 84 85 85 84 85 88 90 89 88 85
74 77 76 75 75 75 71 76 71 76 74 82 84 84 85 87 84 80 80 80 82 82 82 82 83 82 84 86 87 88 85 84
67 75 76 72 76 77 76 78 76 78 75 87 88 86 83 83 81 79 80 80 82 83 82 81 82 81 82 83 85 85 82 82
62 72 71 66 74 76 76 78 79 73 81 86 82 80 83 85 82 81 82 82 82 82 82 82 83 83 82 82 84 82 80 80
62 64 54 73 83 83 80 80 82 81 81 81 84 82 80 81 83 83 84 83 82 84 82 81 85 85 84 83 80 79 78 78
57 60 68 71 75 75 75 75 74 76 78 79 80 80 76 77 82 84 82 83 83 84 84 81 82 82 81 80 80 78 77 76
59 53 54 65 69 72 72 69 70 71 74 76 77 78 78 76 82 83 84 83 81 82 82 82 80 82 80 79 78 77 77 76
55 55 65 64 67 71 65 70 69 73 74 75 75 76 74 78 79 81 81 80 82 83 81 80 80 81 79 78 77 78 77 75
55 54 55 66 68 67 69 70 72 73 73 72 73 75 77 79 79 80 81 81 84 81 80 79 80 81 77 75 75 74 75 71
57 55 63 66 64 71 75 72 74 73 75 74 74 75 77 76 76 77 78 78 82 82 78 77 77 78 73 71 70 71 70 69
53 57 61 64 69 71 72 71 73 76 76 75 75 77 76 77 77 76 77 77 79 79 77 73 73 72 72 72 73 71 69 69
61 63 63 66 66 67 69 71 71 73 74 74 73 73 75 75 74 75 75 75 77 77 76 74 73 73 73 73 73 72 71 72
59 59 60 63 66 66 64 65 69 69 69 70 72 71 73 71 72 73 72 74 74 74 71 70 72 72 72 73 74 73 72 72
57 60 59 65 66 70 67 68 70 70 69 68 69 72 72 71 69 67 75 75 74 73 72 71 72 72 73 73 73 72 71 71

GFSFLT2_sfc_temp_006.txt.gz
Temp
89 90 90 83 79 90 80 82 75 80 82 91 95 94 98 98 99 99 98 98 98 96 96 94 93 92 91 89 88 88 89 87
87 90 90 88 91 77 81 65 64 74 77 79 86 90 96 97 97 99 99 99 100 98 97 96 96 95 93 91 89 89 90 89
83 80 80 82 81 83 84 79 69 67 74 91 89 91 93 98 99 101 100 98 99 100 100 98 98 97 95 93 91 90 91 90
76 87 90 89 83 83 74 70 78 77 78 97 96 96 97 99 103 105 103 100 100 101 100 98 97 98 97 96 94 93 93 90
71 81 85 82 85 86 85 83 74 71 76 96 96 96 97 96 100 101 98 98 98 100 97 97 97 97 98 98 98 98 94 92
69 73 81 76 80 84 83 77 76 78 81 88 92 92 96 98 98 98 94 94 95 96 95 95 96 95 95 98 100 99 98 94
79 81 82 81 80 80 79 80 76 81 81 87 91 93 96 100 100 98 93 92 92 93 93 92 92 93 93 96 96 98 95 95
74 80 81 77 81 82 82 82 82 83 82 95 96 96 96 98 99 97 93 92 92 92 92 91 91 91 92 92 94 94 92 92
67 78 77 71 79 81 82 85 84 78 85 92 92 94 95 97 98 96 95 93 92 92 93 92 92 91 91 90 92 91 89 89
68 71 59 78 88 87 83 85 88 87 89 92 92 96 97 100 99 98 96 95 93 96 94 92 95 95 93 91 88 88 86 86
64 67 72 77 82 82 80 80 89 87 90 93 95 92 89 92 93 96 97 97 94 96 92 90 93 92 90 89 87 86 85 84
68 62 58 71 75 79 78 71 90 91 90 91 92 82 92 89 92 95 95 95 93 93 91 91 91 92 89 88 86 85 85 84
66 63 70 72 74 79 64 73 91 92 90 90 87 88 85 88 90 93 92 91 91 90 89 88 90 91 88 88 87 88 87 85
67 62 60 72 75 69 73 79 82 84 87 86 84 84 85 86 86 88 88 90 92 89 87 89 90 89 86 85 87 86 85 82
69 70 68 71 69 73 81 78 82 83 85 85 84 83 86 86 87 89 90 91 92 89 85 86 87 87 85 82 82 82 78 75
67 67 68 69 73 77 80 82 84 85 86 86 83 85 84 85 86 86 87 87 89 87 85 82 82 83 82 80 80 80 76 76
65 65 70 71 71 73 74 79 81 83 83 82 83 83 80 78 82 83 83 85 87 85 84 80 80 80 81 80 79 77 74 75
66 65 60 57 66 71 71 74 76 78 77 78 80 78 76 75 80 79 81 82 82 82 81 80 80 79 80 78 78 77 76 77
67 68 60 58 63 71 70 72 75 76 77 75 78 80 79 76 75 70 78 78 81 80 80 79 79 79 80 80 79 78 79 79

GFSFLT2_sfc_temp_009.txt.gz
Temp
92 94 91 86 81 92 82 84 78 82 87 95 98 99 101 102 104 104 105 104 103 102 100 98 96 95 93 92 89 90 90 89
91 94 92 88 94 81 84 67 66 77 80 82 89 92 97 98 101 104 106 104 104 103 101 100 99 97 96 94 91 91 91 91
88 84 82 84 83 87 86 82 72 70 78 95 92 94 95 99 102 105 105 104 105 104 103 101 101 99 97 95 93 92 92 91
81 91 93 90 85 86 79 73 80 80 80 98 99 99 99 99 102 105 106 106 106 106 104 102 101 100 98 97 95 94 94 92
75 84 89 84 86 88 88 86 76 75 79 99 101 99 101 100 102 103 106 106 106 106 104 103 101 100 101 100 100 99 95 94
72 75 84 79 83 86 86 79 79 79 82 91 94 95 98 99 101 103 104 101 104 104 104 104 102 98 99 101 102 101 99 97
82 84 85 84 83 84 81 83 78 83 83 89 94 96 98 101 101 101 102 101 100 101 101 99 99 97 98 101 101 102 98 97
76 83 83 80 84 85 84 84 84 85 84 97 99 100 99 99 99 99 101 103 100 99 100 98 98 98 97 97 100 100 96 96
68 79 79 73 81 83 85 88 86 79 86 94 94 95 98 99 100 99 101 103 101 99 99 99 98 97 97 96 99 97 95 95
70 74 61 80 90 89 86 87 90 89 90 93 94 97 100 103 101 101 103 104 103 103 100 98 101 100 99 97 94 94 92 92
67 67 67 72 80 81 79 82 92 90 91 94 97 98 96 103 104 104 105 107 105 103 101 97 99 98 96 94 92 92 90 90
70 63 62 78 80 87 86 73 91 92 92 93 95 86 94 102 103 102 104 107 103 101 101 97 97 97 93 92 90 89 90 89
68 66 73 80 84 86 69 73 83 87 88 92 91 95 99 101 101 100 102 102 101 99 95 94 96 95 90 90 89 91 91 90
70 65 62 81 83 75 77 83 86 87 88 88 96 98 93 94 95 97 98 97 97 94 92 93 94 92 89 88 90 90 89 87
73 73 76 79 76 81 85 84 86 87 91 93 94 91 92 91 92 92 92 93 95 92 89 91 91 91 88 87 88 87 86 84
73 72 74 78 82 83 85 85 88 90 90 91 90 90 90 90 91 91 92 91 91 90 87 86 89 89 87 86 86 84 80 76
70 72 74 74 76 78 80 85 85 88 83 87 87 86 87 85 87 89 88 89 89 86 84 83 85 84 85 84 84 82 80 77
64 73 70 69 75 79 76 76 78 79 75 80 78 75 81 84 85 84 85 85 84 84 83 83 83 82 82 82 83 81 79 80
63 74 70 70 72 72 75 78 77 78 80 79 82 82 82 79 79 72 84 84 84 83 83 82 82 81 80 81 81 80 82 83

GFSFLT2_sfc_temp_012.txt.gz
Temp
92 94 91 84 79 89 78 81 75 81 85 94 97 92 93 97 102 102 102 102 101 99 98 94 92 91 89 86 85 85 86 84
91 93 93 88 91 77 79 64 63 75 77 80 88 89 94 94 97 102 104 102 102 101 99 97 96 94 92 89 86 86 86 86
88 84 81 83 81 82 84 79 70 68 75 93 89 92 91 94 99 102 103 103 103 102 101 98 97 94 93 91 87 86 86 86
80 91 93 89 83 82 73 69 78 76 78 98 95 97 98 98 100 102 101 102 104 104 102 99 96 95 94 93 91 89 87 86
73 83 89 84 86 86 84 82 71 71 76 97 93 89 95 97 99 99 102 103 102 105 100 98 97 95 95 94 94 92 89 88
71 74 83 79 83 85 83 75 75 77 81 87 89 91 94 95 95 100 98 99 100 101 99 98 96 92 92 94 95 94 91 89
80 83 84 83 82 83 80 80 74 81 81 87 91 91 93 98 97 97 98 98 99 100 95 93 92 91 92 94 93 94 90 90
74 82 82 80 84 84 84 83 82 83 82 95 97 97 95 93 96 95 96 99 97 97 97 95 93 91 92 92 92 93 89 89
67 78 78 72 80 83 84 87 85 78 85 93 91 92 95 91 97 96 97 98 98 97 96 97 97 93 91 91 93 91 88 88
69 72 59 79 89 89 85 87 89 89 89 91 91 93 95 97 95 92 97 98 98 102 97 96 102 101 96 94 90 89 88 88
65 66 73 79 84 83 82 81 90 89 91 93 95 96 92 98 100 98 99 100 99 103 99 95 97 96 94 93 91 90 89 88
68 61 59 76 86 87 85 71 88 88 88 90 93 84 89 97 101 102 103 103 101 102 99 96 95 98 93 92 90 89 89 89
66 64 71 80 84 85 66 71 84 87 86 86 84 86 89 98 94 99 100 100 102 97 94 92 94 95 89 90 88 90 90 89
66 59 53 79 76 70 78 84 85 87 88 86 89 91 91 95 92 95 99 100 99 95 92 92 93 90 87 86 88 88 87 86
68 70 78 82 80 84 86 85 85 86 89 89 89 91 95 93 95 95 97 95 97 91 89 90 89 87 84 84 85 84 84 82
68 76 79 81 85 86 88 86 88 86 84 90 90 93 91 91 91 90 91 90 90 87 85 84 85 86 85 84 84 83 80 79
70 76 76 77 79 82 84 82 81 79 77 76 77 79 85 86 86 87 86 86 86 84 84 83 83 82 84 83 82 78 77 76
56 60 71 70 77 80 77 78 77 77 73 72 71 69 71 77 79 79 79 79 79 80 80 79 81 81 82 82 81 79 76 75
53 55 61 70 74 80 77 78 79 79 77 73 72 68 67 67 70 72 77 77 79 81 81 80 79 79 81 82 81 78 77 76

GFSFLT2_sfc_temp_015.txt.gz
Temp
85 86 82 71 68 76 59 62 56 64 70 79 87 85 88 88 88 89 91 94 92 91 90 87 87 84 84 81 81 81 81 80
84 86 84 78 76 64 69 53 53 64 63 66 71 80 80 81 84 87 88 90 93 92 90 88 89 87 86 83 81 82 82 81
76 74 73 74 71 67 66 66 57 53 63 73 76 81 80 84 88 87 90 90 94 93 92 89 90 88 86 83 82 82 82 82
69 80 85 81 70 68 61 52 58 62 64 81 84 83 87 88 89 91 87 94 95 94 93 89 88 88 86 84 83 83 83 82
62 70 78 75 77 71 74 61 57 52 62 86 87 84 84 85 83 86 86 83 93 94 92 89 88 88 88 86 84 84 83 82
61 62 68 67 75 77 71 64 64 66 68 76 76 78 83 88 85 92 87 87 86 93 91 91 89 88 88 87 86 85 84 83
72 75 76 75 74 77 72 71 63 65 68 72 76 79 79 82 84 86 86 85 83 89 90 89 88 88 88 88 88 86 84 83
64 73 76 73 77 78 78 77 74 74 73 75 76 81 81 82 87 86 87 86 84 87 90 89 88 86 88 87 88 88 84 83
56 67 67 63 73 75 75 79 76 69 77 77 77 78 78 83 85 85 88 85 85 84 88 90 88 88 86 87 89 87 85 84
54 58 49 63 78 80 77 78 78 76 77 77 77 77 79 82 85 82 87 86 85 90 83 88 90 90 89 88 86 86 84 83
51 55 59 69 74 73 70 71 78 72 75 80 81 78 76 83 84 86 87 91 87 83 84 85 91 90 88 86 85 85 82 82
51 50 50 63 77 81 75 60 75 76 74 75 75 66 70 75 80 83 84 90 92 92 88 89 86 90 87 86 84 84 85 83
54 54 58 70 77 78 59 59 72 76 75 74 68 71 76 79 79 82 81 83 84 86 86 86 84 90 87 87 86 86 87 80
54 51 49 71 75 65 65 71 75 74 75 72 72 76 77 80 79 80 80 80 83 80 81 80 82 86 82 83 82 82 81 80
57 56 63 63 61 63 70 71 75 71 74 74 75 74 78 77 76 80 79 79 78 82 79 79 79 83 79 77 80 80 79 77
57 62 68 67 65 68 68 67 70 71 70 70 66 69 71 75 76 74 75 78 79 77 76 75 77 79 78 79 80 78 76 74
54 54 56 67 65 68 69 69 69 70 69 67 67 65 65 65 69 73 74 75 78 77 75 75 77 77 79 78 77 74 73 71
49 53 53 53 61 65 67 67 67 66 64 64 63 61 62 61 63 65 66 72 74 75 74 74 75 74 74 74 74 71 70 70
54 57 55 57 61 69 68 69 70 68 65 63 62 62 61 60 61 61 63 69 72 72 73 72 72 73 74 73 73 72 70 69

GFSFLT2_sfc_temp_018.txt.gz
Temp
79 78 76 66 58 69 54 48 49 55 63 71 76 79 82 82 82 85 87 88 89 87 87 86 85 82 81 79 80 80 79 79
78 78 79 69 70 57 50 48 49 52 57 60 68 72 78 80 82 86 89 91 92 90 88 87 87 84 83 81 81 80 80 80
67 66 67 66 64 55 60 54 53 45 60 69 70 72 74 82 86 87 89 87 89 90 89 88 88 84 82 81 81 80 80 81
64 72 77 76 68 62 58 50 53 62 63 74 75 77 77 83 85 88 90 88 88 90 90 88 86 85 83 81 82 82 81 80
54 60 62 65 71 71 56 54 58 51 57 75 74 74 77 78 82 85 88 83 83 90 87 87 86 86 84 82 82 82 82 80
57 63 64 60 69 70 69 61 61 62 58 67 70 71 74 76 83 81 81 84 84 88 89 88 86 86 84 83 83 83 82 81
62 69 72 68 68 71 66 70 63 68 61 66 69 71 76 80 79 84 84 83 85 89 88 87 85 85 85 84 83 83 81 80
54 66 73 69 72 73 71 72 70 66 64 72 76 72 75 78 83 79 83 84 85 89 89 88 86 85 85 84 83 83 81 80
42 61 68 60 71 71 71 72 72 63 68 71 71 73 75 77 76 80 81 85 82 87 89 89 87 87 85 85 85 82 81 81
43 49 50 64 79 78 71 72 72 73 74 72 76 79 74 77 79 78 80 81 78 87 89 90 90 88 87 86 84 82 81 81
41 43 55 65 68 69 66 65 73 71 73 74 76 72 67 76 79 81 81 82 79 80 85 89 89 88 86 85 84 83 81 80
48 44 47 60 72 76 72 57 70 71 70 73 71 64 67 72 77 80 78 80 82 78 80 85 88 89 85 83 83 82 83 82
49 48 53 64 73 73 59 58 69 70 69 70 67 68 72 73 76 76 77 79 80 79 80 84 89 87 85 84 82 85 85 84
50 47 46 66 68 64 61 64 69 70 69 69 70 71 71 73 75 77 79 78 79 75 76 81 84 87 84 83 85 85 84 81
50 48 54 57 57 61 63 61 62 62 65 67 68 65 67 67 67 70 71 74 76 75 76 75 79 86 84 84 82 81 80 79
53 55 54 57 60 63 64 62 64 65 64 64 61 63 62 64 65 66 67 68 72 71 71 71 74 83 85 80 81 80 79 76
51 53 54 56 57 61 64 65 65 64 63 61 62 60 60 60 61 62 61 60 63 66 70 71 73 74 78 80 79 76 74 74
47 51 49 52 58 62 61 62 63 62 61 61 61 58 59 58 58 60 61 61 60 58 58 57 60 73 75 76 76 72 71 69
52 56 53 57 58 61 59 60 65 64 63 60 60 59 59 57 58 59 61 60 62 62 62 62 63 65 72 72 73 72 69 66

GFSFLT2_sfc_temp_021.txt.gz
Temp
75 73 72 60 57 64 49 42 46 51 58 66 73 75 76 80 83 82 83 84 84 85 85 85 84 81 79 78 78 77 77 78
72 73 71 69 67 54 45 44 44 48 53 56 63 73 72 74 76 79 83 84 86 86 87 86 86 84 82 81 79 79 78 79
64 61 63 59 60 52 54 51 50 45 55 67 68 69 70 72 79 81 81 84 86 87 89 87 87 84 82 81 80 80 79 79
58 66 75 69 66 57 53 48 46 56 58 68 75 76 72 73 79 81 84 85 87 89 88 86 85 85 81 82 81 81 81 80
49 55 59 61 62 67 59 53 58 50 54 69 73 71 73 75 75 78 81 82 84 81 82 85 85 85 82 82 81 82 81 80
45 50 57 57 64 66 64 55 60 61 58 62 67 69 71 72 74 75 78 81 79 78 80 83 84 84 82 82 82 82 81 80
48 53 57 61 62 68 61 65 60 65 59 67 67 68 71 74 74 75 77 81 78 84 79 81 82 83 83 82 82 83 80 79
44 56 60 59 64 67 69 69 66 65 60 68 74 71 69 73 73 72 76 82 84 87 86 84 85 83 83 82 81 82 80 79
35 49 51 51 62 67 69 70 69 63 66 69 69 69 70 72 72 75 76 81 78 86 88 89 87 86 83 82 83 81 80 80
35 41 38 60 72 74 70 68 67 67 70 70 73 77 74 73 74 74 76 77 79 85 81 83 87 87 87 84 81 80 79 79
35 35 47 60 66 69 63 64 69 70 71 71 71 68 69 72 72 76 76 78 78 81 86 86 86 86 85 83 81 79 78 79
37 36 38 52 60 63 68 62 70 70 70 71 67 61 72 73 74 75 76 74 75 75 76 79 84 86 83 81 81 79 79 80
41 39 46 54 56 61 53 63 68 69 69 66 67 68 72 72 71 72 73 74 74 70 76 80 81 83 81 82 80 82 82 82
42 40 38 57 57 51 54 59 65 68 66 66 65 65 66 67 67 66 67 68 69 69 70 71 75 82 80 80 83 83 83 81
49 47 54 57 55 60 60 57 58 59 62 65 63 62 63 62 63 63 63 65 69 68 67 67 71 75 78 81 82 81 81 81
49 53 54 57 58 60 60 59 61 61 61 62 60 60 60 61 61 62 62 63 63 64 65 63 66 68 72 81 80 79 79 80
50 52 56 58 57 57 60 61 61 61 60 60 60 57 57 57 58 59 60 60 62 64 63 61 60 61 64 66 72 75 78 75
47 52 52 52 55 57 57 58 58 59 58 59 59 57 58 57 58 58 58 59 60 61 62 63 63 63 66 63 70 71 71 72
51 54 54 55 56 59 56 58 60 60 60 58 59 58 58 57 58 58 65 64 62 60 61 60 60 61 62 64 69 72 72 68

GFSFLT2_sfc_temp_024.txt.gz
Temp
69 68 70 55 55 58 46 40 43 48 55 65 69 71 72 76 79 78 81 81 82 83 82 80 80 78 77 76 75 76 76 76
69 70 68 62 62 51 43 39 37 45 49 55 60 68 70 70 74 78 81 82 83 83 84 83 83 81 79 78 76 77 77 77
61 60 63 56 55 49 53 46 42 39 49 60 65 66 71 73 76 79 81 81 83 84 85 84 85 82 80 79 77 77 77 77
54 60 68 71 62 53 52 46 44 44 53 67 68 74 70 72 75 76 78 80 83 85 85 85 83 84 80 80 79 79 78 77
46 55 58 55 63 57 62 49 52 48 54 71 67 68 72 70 71 72 74 76 78 82 82 83 83 83 82 81 82 81 79 78
38 43 48 48 55 59 61 56 57 57 60 61 65 66 69 68 70 73 72 73 75 77 82 83 82 81 81 81 82 82 81 78
43 49 51 52 53 56 55 61 56 63 62 64 65 66 70 71 70 72 73 72 71 76 77 77 78 79 80 80 80 81 79 79
40 51 52 49 55 58 59 60 59 64 59 66 70 67 68 69 70 71 72 73 73 75 76 76 78 78 80 78 79 80 78 78
33 44 47 46 56 59 59 62 63 57 63 69 65 66 69 73 71 70 72 73 72 75 78 78 80 80 80 79 81 79 78 78
33 38 34 50 60 63 64 66 66 68 66 69 72 74 74 74 76 73 73 72 73 76 80 82 83 84 80 80 79 78 77 77
33 33 46 52 56 54 49 53 68 68 69 68 74 72 68 70 71 74 73 73 75 77 78 78 77 77 78 78 78 77 77 76
33 33 34 48 55 61 57 46 64 69 70 71 65 60 67 75 71 72 72 73 73 73 73 75 75 78 78 78 77 76 77 78
34 35 42 54 56 60 49 51 58 59 61 71 67 74 69 69 67 69 70 71 72 72 72 71 73 76 76 77 76 79 79 79
34 33 35 55 57 53 55 58 60 59 59 63 63 63 63 64 64 66 67 68 69 66 64 65 71 73 73 73 77 77 77 77
40 41 49 55 55 57 60 57 59 59 60 63 62 61 62 61 61 62 64 66 68 67 65 64 67 67 69 67 74 76 75 75
41 50 53 55 57 58 59 59 61 62 61 61 59 60 59 60 60 60 61 62 65 65 64 63 65 66 66 68 71 73 73 73
44 49 54 55 55 55 58 60 60 60 60 59 60 58 59 59 59 60 61 61 62 62 63 62 64 65 66 66 69 71 70 72
42 51 51 52 54 57 56 56 58 58 59 59 59 58 59 59 61 64 62 62 62 62 63 62 62 63 64 65 68 71 69 69
48 53 52 54 56 56 56 58 59 58 59 59 59 60 60 60 62 60 63 63 61 61 63 64 64 65 66 65 64 69 70 70

GFSFLT2_sfc_temp_027.txt.gz
Temp
77 78 77 68 65 76 65 61 61 68 73 79 82 84 86 87 89 88 88 88 88 89 89 87 86 84 83 82 81 81 82 81
75 79 79 73 77 62 66 54 53 63 63 70 75 80 83 84 86 89 90 90 90 90 90 89 89 87 86 84 82 82 83 83
73 70 69 68 67 70 71 66 59 58 66 77 78 80 83 87 89 90 90 90 91 91 91 90 90 89 87 85 83 83 83 83
65 77 80 76 72 71 63 58 64 66 67 82 83 84 84 88 90 90 91 90 91 92 92 91 90 89 88 87 86 85 84 82
61 70 72 70 74 74 74 73 60 60 66 85 84 81 85 85 88 86 86 88 90 92 91 90 91 89 89 88 89 88 85 84
58 61 60 58 65 72 71 65 64 66 70 77 79 78 83 84 86 87 86 86 87 87 88 89 89 87 87 88 90 89 87 86
54 56 57 57 59 62 62 68 65 69 70 75 79 81 84 87 87 84 85 86 86 85 84 85 86 86 86 88 87 89 85 85
50 57 58 55 60 60 63 64 65 67 68 82 80 84 83 86 86 85 85 88 88 86 85 84 85 85 86 86 86 86 83 83
46 53 54 52 60 63 65 68 68 63 71 79 78 79 79 83 85 85 88 88 87 88 86 86 87 86 85 85 85 84 83 83
47 50 40 62 69 67 66 70 73 73 75 78 80 83 84 87 86 87 88 89 88 90 90 86 90 92 89 88 83 82 82 83
43 47 53 58 64 64 61 67 74 73 76 80 83 85 82 87 87 86 88 89 89 92 89 87 87 88 87 86 84 83 82 82
46 41 42 59 69 74 66 57 66 67 69 74 81 74 81 89 88 88 88 89 87 88 87 87 86 90 86 86 84 82 83 83
41 42 50 63 67 67 54 62 67 68 68 67 67 78 85 85 83 83 83 84 84 85 84 84 84 86 83 86 84 86 87 86
41 39 38 65 67 59 65 67 68 69 66 63 67 71 76 80 78 79 79 80 81 79 79 79 82 83 83 82 85 86 85 84
46 48 58 64 61 66 67 66 67 66 66 63 65 71 77 75 75 76 78 78 80 79 77 78 80 83 80 79 83 84 83 82
47 52 56 60 65 67 68 66 68 67 63 65 68 74 72 72 73 74 75 76 78 77 76 74 76 78 78 80 82 83 82 81
47 52 55 58 62 62 67 67 66 66 67 67 70 71 72 71 71 73 72 73 75 75 75 74 75 75 77 77 79 81 81 82
42 54 54 57 64 67 64 66 66 63 66 67 67 62 63 66 70 71 70 71 71 72 72 72 73 73 74 74 74 77 79 82
46 54 55 59 60 65 64 65 66 66 64 63 63 64 64 64 65 63 68 70 70 71 72 72 73 72 74 73 72 73 73 76

GFSFLT2_sfc_temp_033.txt.gz
Temp
89 90 89 81 77 88 80 82 77 81 84 93 97 97 99 101 102 103 103 103 102 101 100 98 97 95 93 91 88 88 89 87
88 90 89 87 88 76 79 66 65 77 79 80 87 90 96 97 99 102 105 103 103 103 101 101 100 99 96 94 89 89 90 89
87 81 79 81 80 81 83 80 71 69 78 94 92 93 93 97 100 102 104 104 105 103 104 103 102 100 98 95 92 91 91 90
80 88 90 88 82 82 73 70 79 80 80 96 97 97 98 97 100 103 105 105 105 105 105 104 102 101 99 98 96 94 93 90
74 83 86 82 85 86 85 84 74 73 78 95 94 95 98 98 100 102 104 104 105 106 104 104 104 102 102 100 99 98 94 94
71 76 81 76 81 84 84 77 77 79 82 87 89 90 93 96 99 101 101 101 104 106 106 105 104 102 101 102 102 101 99 97
76 81 81 82 80 82 79 81 76 82 82 88 90 91 94 97 97 97 97 98 100 101 101 103 103 102 101 102 102 102 98 98
69 78 74 73 80 82 83 83 83 85 85 96 96 96 94 94 95 94 95 98 100 101 101 100 102 101 101 99 101 101 97 97
60 71 71 64 75 79 83 86 85 78 86 94 92 90 91 92 94 94 96 98 99 101 103 102 103 102 100 99 99 98 95 95
60 65 53 74 84 83 80 83 87 86 87 89 89 92 94 96 94 94 96 98 100 104 105 105 109 109 103 102 96 94 93 93
56 61 68 73 78 79 76 75 85 84 86 88 90 91 89 95 96 96 98 100 102 105 107 106 107 107 105 100 99 94 93 91
58 54 54 71 80 83 82 69 86 86 85 86 89 81 87 93 95 98 100 102 102 104 106 106 104 107 104 102 99 94 93 93
54 54 63 76 80 83 63 67 84 87 85 85 83 84 85 88 88 90 92 94 97 98 98 99 102 104 99 100 99 98 96 95
55 52 50 77 76 68 71 76 75 76 77 77 81 82 84 85 86 87 89 92 95 96 97 97 98 98 95 93 97 97 96 93
60 60 70 75 73 78 79 72 74 75 78 77 78 81 83 82 84 87 91 92 97 97 95 96 96 94 92 92 95 95 93 91
58 64 67 70 75 77 78 75 76 78 77 78 77 80 81 82 85 89 90 91 94 93 92 91 91 92 91 93 93 92 90 90
58 63 66 68 71 72 74 74 75 76 76 77 78 79 80 80 84 87 87 87 88 89 89 87 87 87 90 90 91 89 89 89
53 63 63 64 70 73 71 71 72 73 74 76 78 78 77 76 80 82 84 84 84 84 83 83 84 83 84 85 87 90 89 91
55 63 65 66 68 71 70 71 74 73 74 73 78 80 75 72 76 72 78 81 82 82 83 83 81 79 81 84 85 85 86 85

GFSFLT2_sfc_temp_036.txt.gz
Temp
88 90 88 80 74 85 75 77 71 76 80 89 94 94 98 100 101 100 101 102 99 98 96 93 92 90 88 85 83 83 84 84
87 91 89 85 88 73 76 61 62 73 76 77 83 89 94 96 99 101 102 102 101 99 98 95 95 93 91 88 84 84 85 85
85 80 79 81 80 79 80 76 67 67 75 93 86 90 93 97 99 102 102 101 102 100 100 98 97 95 93 90 87 85 85 85
76 89 90 86 81 81 71 67 76 75 77 95 96 96 96 97 99 102 102 102 103 102 101 100 96 96 94 93 91 88 87 85
69 80 87 81 83 83 83 81 71 70 76 95 94 95 97 96 99 98 100 101 102 103 100 100 98 96 96 94 95 93 89 87
66 71 82 76 80 83 82 73 74 77 79 85 89 91 95 96 97 99 98 98 101 101 99 100 98 95 95 96 97 95 92 90
75 80 82 81 80 81 79 81 74 80 82 84 87 90 94 97 98 98 97 99 99 100 95 95 95 94 95 97 95 96 92 90
66 74 77 75 81 81 82 82 83 84 84 91 93 93 93 93 93 93 94 97 99 98 99 100 96 94 95 95 96 95 91 91
57 69 71 68 76 81 83 86 85 79 86 92 89 90 91 92 93 93 94 96 98 99 98 97 100 97 95 94 96 94 91 91
56 62 53 73 84 84 82 86 89 88 90 93 91 92 94 95 94 94 95 96 96 100 99 99 103 105 99 98 92 91 89 89
54 57 66 73 79 79 77 79 89 89 91 91 91 91 89 94 96 95 95 96 97 100 100 97 99 98 96 96 93 91 90 89
56 52 54 69 82 87 87 70 85 87 86 87 89 79 80 86 89 89 91 91 91 94 96 101 100 104 95 95 93 90 90 90
53 52 63 70 77 85 66 62 76 77 77 84 82 79 82 86 85 87 89 89 92 91 90 94 95 95 93 93 92 93 92 91
54 51 49 74 75 63 67 72 74 75 75 73 76 79 82 83 83 84 86 89 93 90 90 92 97 94 89 89 92 95 91 89
58 58 70 75 72 77 78 74 72 73 76 75 75 76 78 79 81 83 86 89 92 92 90 91 96 93 87 89 92 93 91 88
57 63 66 70 74 76 76 74 76 77 75 76 74 76 77 79 80 80 83 87 89 87 88 90 92 91 89 89 91 91 90 88
55 60 64 68 71 72 74 74 74 76 75 75 74 74 75 76 78 77 78 83 85 84 86 86 86 84 85 86 89 88 88 88
51 59 59 61 68 72 71 71 73 73 72 75 75 73 74 75 78 75 77 79 82 84 84 84 84 83 83 84 85 87 87 88
50 57 58 61 64 67 67 70 73 73 73 72 74 73 73 73 76 71 74 78 78 79 79 79 79 80 81 83 86 83 84 85

GFSFLT2_sfc_temp_039.txt.gz
Temp
81 83 79 70 65 70 55 57 52 57 65 75 83 84 86 85 92 90 91 91 89 88 88 87 87 84 83 80 80 80 80 80
80 82 81 75 75 61 63 47 47 59 62 66 74 79 84 83 84 91 93 92 90 89 89 88 89 86 85 82 80 80 81 80
73 72 70 71 68 70 61 57 48 48 59 79 77 81 83 84 84 91 92 92 91 90 90 89 90 87 85 83 80 80 80 81
63 76 82 77 72 67 62 54 60 58 62 79 78 86 87 87 85 86 93 93 92 91 91 89 89 88 86 85 82 81 82 81
58 65 74 73 75 74 66 61 58 54 58 81 79 85 85 81 84 87 88 91 92 91 90 89 89 89 87 87 84 83 82 82
50 60 65 66 74 75 69 63 63 62 63 71 77 78 79 81 83 83 84 89 92 92 91 90 90 89 88 88 88 85 84 82
60 66 69 73 74 75 70 69 63 66 65 70 71 75 77 81 83 84 83 86 89 92 91 91 90 89 90 89 89 89 84 83
53 66 70 68 72 77 75 75 72 71 69 75 78 78 79 79 80 79 80 83 84 86 91 91 91 89 90 89 89 90 87 84
45 60 62 56 66 72 76 78 75 66 71 76 74 77 78 78 80 80 82 83 83 84 81 80 86 91 90 90 91 89 88 86
43 52 42 60 73 75 76 76 81 79 79 77 77 76 76 77 79 80 81 81 82 82 83 80 81 90 92 91 88 88 87 86
43 48 54 65 69 70 66 60 68 70 79 81 78 76 73 78 79 76 76 77 77 79 79 78 82 84 89 89 89 85 86 85
47 45 45 57 64 71 73 52 68 68 70 77 75 63 64 74 77 77 77 78 79 81 80 80 80 81 83 88 89 85 86 85
47 45 48 58 68 69 54 51 65 67 67 66 62 64 68 74 74 75 77 78 79 79 78 78 80 81 79 80 83 88 87 80
44 45 40 64 65 55 60 64 65 65 65 64 66 68 69 70 71 73 74 75 80 78 77 79 79 80 77 78 81 81 79 80
46 46 57 60 61 67 68 63 63 62 65 65 65 65 66 66 68 71 71 73 77 77 77 77 77 80 77 77 79 81 79 79
45 52 55 61 65 66 66 64 65 65 65 65 63 65 65 65 67 68 70 71 75 76 75 75 75 75 75 76 77 78 78 77
46 51 51 56 55 58 59 61 64 67 67 65 64 63 63 63 63 67 68 70 72 72 75 74 75 75 75 75 76 76 77 78
37 47 46 47 53 54 54 56 61 62 64 66 65 63 63 62 63 66 67 68 69 71 74 74 74 72 74 74 75 75 75 77
41 47 48 49 51 53 52 56 61 62 63 62 64 63 62 61 61 64 66 67 67 69 73 75 75 75 73 74 74 74 72 75

GFSFLT2_sfc_temp_042.txt.gz
Temp
76 78 74 64 60 64 50 45 47 53 58 67 76 77 77 82 80 79 82 85 86 86 86 86 82 80 80 79 79 79 79 79
73 77 76 69 68 54 48 42 40 51 53 57 68 73 74 75 81 82 86 86 87 86 86 87 85 83 81 80 80 80 80 80
63 64 66 62 65 58 59 49 45 43 55 69 68 72 74 75 83 85 87 87 88 87 87 87 87 84 82 80 80 79 80 80
52 68 71 73 62 62 58 48 48 49 60 74 75 79 81 83 81 87 88 89 89 88 87 87 86 84 82 81 80 80 80 80
46 54 61 60 67 63 58 55 51 55 60 74 74 76 76 83 81 83 88 88 89 88 86 86 86 85 83 82 81 81 80 79
33 43 52 56 65 68 62 55 58 59 61 69 73 73 74 74 77 82 87 88 88 87 86 86 86 85 83 83 82 81 80 79
41 48 53 55 63 67 64 68 60 64 62 68 69 73 71 74 75 78 85 87 86 86 86 85 85 86 84 84 83 82 80 79
39 54 57 59 66 66 69 70 64 63 64 71 72 73 71 72 74 74 82 87 87 87 87 85 85 85 85 84 83 83 80 79
34 50 58 52 58 65 69 71 70 60 66 69 65 68 67 70 76 74 75 82 87 87 88 88 87 87 85 85 85 83 81 81
35 44 42 56 64 64 60 60 61 62 67 68 69 69 70 71 71 74 76 77 76 78 80 79 82 88 88 86 85 83 82 81
33 41 51 55 56 57 54 54 61 61 71 71 72 71 68 71 72 70 71 72 74 76 76 76 81 88 88 87 85 84 83 82
37 38 38 46 57 67 64 45 61 62 61 66 69 57 58 67 71 71 72 72 74 76 76 77 74 78 86 86 85 84 84 84
41 40 43 51 57 69 45 47 60 62 61 60 58 58 62 67 69 71 71 72 74 74 72 73 75 75 76 81 85 87 86 86
37 38 33 55 53 46 51 60 61 59 60 59 60 63 64 66 65 69 69 71 73 74 73 73 73 77 74 75 78 78 78 78
37 38 50 56 51 55 56 56 55 58 60 60 61 61 62 62 64 66 68 70 72 71 72 74 74 73 71 71 74 76 75 76
37 47 47 52 56 56 54 53 55 57 60 61 59 60 60 62 63 64 66 67 69 69 69 69 71 72 71 72 73 73 73 75
37 42 45 52 54 52 54 54 55 57 59 60 60 59 59 59 60 63 65 65 66 66 67 69 70 70 71 72 72 71 72 72
35 43 43 43 49 52 51 51 53 54 56 59 60 60 60 59 59 59 62 63 63 64 65 67 69 70 71 71 70 70 70 72
43 49 48 48 49 51 50 51 53 54 56 56 62 63 62 57 57 58 60 62 62 63 65 67 68 70 70 71 71 70 68 69

GFSFLT2_sfc_temp_045.txt.gz
Temp
61 72 69 58 56 61 47 42 45 53 54 64 70 74 75 77 80 79 78 79 81 83 83 83 82 81 78 77 78 77 77 77
57 69 70 66 65 51 46 41 37 46 51 57 64 66 72 74 77 80 81 78 80 84 84 83 83 82 81 79 78 78 78 78
50 56 61 59 59 55 56 48 49 40 51 62 65 70 71 75 79 79 80 80 81 84 86 86 83 82 80 80 79 78 78 79
40 56 56 56 60 55 55 47 44 47 56 70 72 73 71 77 80 81 82 81 84 86 86 86 85 81 80 80 80 80 79 79
42 47 54 52 55 58 58 49 46 52 57 69 67 68 73 74 76 81 81 82 84 86 85 85 85 83 81 80 80 81 80 79
32 34 42 40 45 49 52 50 52 57 62 68 71 69 70 70 72 79 83 82 84 85 85 85 86 84 81 80 81 81 80 79
36 40 42 42 42 46 47 58 57 60 58 66 65 67 66 68 71 75 83 84 85 85 84 84 84 84 82 81 80 81 79 78
34 42 44 41 49 52 54 60 60 59 60 63 62 63 65 64 68 74 81 84 85 86 85 84 84 83 82 81 80 80 78 77
27 41 44 44 50 54 58 53 55 57 58 63 61 63 62 63 64 70 81 84 85 86 85 85 85 85 82 81 82 79 78 78
28 35 38 50 55 57 55 55 56 55 60 63 63 64 65 66 64 65 68 78 85 87 86 86 86 86 84 82 80 78 78 77
31 31 48 50 50 48 46 49 57 55 58 64 67 67 64 66 68 66 66 68 71 78 80 79 84 85 83 81 80 79 78 77
33 32 36 44 51 57 59 41 55 57 57 58 63 54 55 64 67 67 69 70 70 72 75 78 79 84 82 80 80 78 79 79
32 32 39 49 51 58 40 40 52 53 54 57 53 54 62 64 64 67 68 69 72 71 69 70 73 84 83 82 81 84 82 81
35 35 34 51 51 43 45 53 53 51 52 53 58 62 62 61 62 65 66 68 70 70 70 70 70 73 70 72 73 77 78 79
35 37 48 51 47 51 54 51 51 50 53 57 60 60 59 58 60 63 64 66 68 68 69 70 71 71 70 69 72 73 74 76
36 43 43 48 52 52 51 50 54 55 55 57 57 60 61 57 58 60 62 63 66 66 66 67 68 70 69 70 71 71 71 71
39 44 45 50 51 52 51 51 53 55 56 56 58 59 56 56 56 58 59 62 63 63 64 65 67 67 69 69 70 70 70 70
35 44 42 44 50 52 50 48 50 51 52 55 56 59 59 55 55 56 58 59 62 63 63 64 66 67 68 69 70 68 68 68
42 46 47 50 51 52 49 50 50 52 53 53 56 59 60 54 54 56 59 60 60 61 63 64 66 67 68 69 69 68 67 68

GFSFLT2_sfc_temp_048.txt.gz
Temp
57 59 63 55 51 56 44 39 41 54 52 65 66 71 71 74 76 75 77 77 78 80 80 79 79 78 76 75 75 74 75 75
52 58 62 58 62 48 43 37 35 44 48 56 60 65 67 69 73 76 78 79 80 81 81 81 82 81 78 77 75 76 76 76
47 49 53 54 56 51 54 47 40 38 46 61 62 69 71 71 73 76 78 79 80 81 83 82 83 82 79 78 76 77 76 76
38 50 52 50 47 51 52 44 43 44 51 66 68 69 70 76 74 76 79 80 80 82 82 83 82 82 81 79 78 78 77 76
37 42 46 45 48 43 42 49 51 49 49 70 66 67 68 71 74 72 74 77 79 81 81 82 82 81 81 80 79 80 78 77
29 35 39 37 43 45 39 37 48 53 57 62 66 66 66 69 70 71 72 75 78 79 80 83 82 79 79 80 80 80 79 78
35 37 40 40 40 42 40 43 40 54 55 60 64 66 65 65 65 67 72 75 77 78 80 81 81 78 78 79 79 80 77 77
31 40 41 40 45 46 47 47 48 51 54 62 62 62 61 61 62 62 66 72 78 79 80 81 81 81 78 78 78 79 77 77
26 37 39 39 46 50 50 51 50 50 53 57 59 59 58 59 61 62 63 70 77 80 82 83 83 82 79 78 79 77 76 76
26 33 30 43 54 57 51 50 49 52 54 60 60 61 62 62 60 64 65 65 77 83 83 83 85 85 81 80 77 76 76 75
29 31 40 49 48 46 47 46 50 48 51 57 61 64 61 64 63 65 67 67 70 79 79 79 82 81 79 78 77 76 75 75
32 30 33 41 48 53 54 41 51 49 49 52 60 55 57 63 66 65 68 69 68 75 75 77 76 80 78 77 76 75 76 76
30 31 36 44 45 53 43 41 50 50 51 54 54 57 61 63 64 66 66 68 70 69 72 75 78 79 76 76 76 78 78 78
31 31 33 45 48 42 44 49 49 49 51 53 57 60 61 61 60 62 63 66 68 70 69 70 73 78 75 74 75 76 76 76
35 34 42 44 45 48 49 47 49 50 53 55 56 58 60 58 58 60 63 64 67 67 69 70 71 74 73 72 74 75 75 75
35 39 42 47 51 51 51 48 52 54 55 56 55 58 59 60 58 58 61 63 65 65 66 67 68 70 70 72 73 73 73 73
35 41 45 49 49 50 51 52 51 54 55 55 55 56 58 58 58 57 59 62 63 63 64 66 67 69 71 72 73 72 72 73
35 43 42 44 49 50 49 49 51 51 52 55 56 55 58 58 59 56 57 60 62 63 64 66 67 68 69 70 71 71 71 71
41 45 46 48 50 51 48 50 52 52 52 52 55 56 57 58 58 57 57 59 60 61 63 64 66 67 67 68 69 69 69 70

GFSFLT2_sfc_temp_051.txt.gz
Temp
62 65 71 65 59 71 62 59 58 65 68 76 80 82 85 85 85 83 83 84 83 84 85 84 84 83 82 81 80 80 81 81
57 63 67 68 72 58 61 49 48 59 62 65 73 78 81 82 85 85 85 85 85 85 86 86 86 86 84 83 81 81 82 82
56 57 61 62 61 65 66 61 54 53 61 77 76 79 82 83 85 87 86 86 86 86 87 87 88 87 86 84 82 82 82 82
49 60 61 58 60 66 56 54 60 61 63 80 81 84 86 88 89 88 88 87 87 88 88 88 87 88 87 86 85 84 83 82
48 56 56 54 55 57 60 60 58 55 60 81 81 81 83 83 87 85 86 87 88 89 88 88 88 87 88 87 87 88 85 83
40 44 47 46 50 52 54 57 59 62 65 73 77 78 82 82 83 83 83 85 86 86 87 87 87 85 86 87 88 88 87 85
45 46 45 45 47 51 49 56 55 64 65 73 77 80 82 83 79 79 80 83 84 85 84 84 85 85 85 88 86 87 84 85
40 47 46 43 49 52 53 54 54 57 59 72 73 74 74 72 72 74 76 78 80 84 85 84 85 84 84 85 85 85 82 83
36 46 44 42 51 54 56 57 59 56 66 66 68 68 67 68 69 69 72 74 76 79 83 86 86 85 84 84 85 83 82 83
36 39 31 53 60 62 55 53 56 57 59 61 70 69 69 68 66 67 69 71 74 79 82 87 90 91 87 87 83 82 81 81
32 33 42 51 51 50 53 50 55 54 57 61 67 70 70 67 66 65 67 70 74 80 84 88 89 89 85 85 83 82 81 81
33 29 32 40 49 54 55 48 54 54 55 60 70 66 63 65 65 65 68 70 76 81 90 89 88 90 84 83 82 81 82 82
34 30 36 40 46 57 44 46 52 53 54 59 60 63 64 64 64 67 69 70 79 84 86 86 87 87 83 83 82 84 85 84
35 30 30 43 46 47 49 56 52 52 54 56 59 61 62 62 63 64 67 71 75 78 80 85 86 84 82 80 84 84 84 83
36 36 43 45 44 51 56 54 53 51 54 56 57 58 61 62 63 64 65 69 75 77 77 79 83 84 81 82 82 82 82 82
36 41 43 45 48 53 54 54 55 54 54 56 55 58 58 62 62 63 65 67 74 76 74 74 77 79 80 81 83 81 80 81
37 42 46 47 47 50 51 55 55 55 54 55 55 56 57 60 62 63 62 65 70 71 72 73 76 76 78 79 82 82 81 81
35 41 42 43 47 50 51 52 54 53 52 54 54 54 57 59 64 65 66 66 69 70 71 73 74 74 74 75 76 79 80 81
40 44 45 46 48 49 49 52 54 54 54 53 54 55 56 58 63 63 67 67 68 68 69 70 73 71 71 71 75 73 72 74

GFSFLT2_sfc_temp_054.txt.gz
Temp
71 78 78 72 67 78 71 74 69 74 77 85 89 89 91 92 95 94 94 94 93 93 92 91 90 90 88 87 85 86 87 86
70 70 74 72 80 66 68 55 56 68 70 73 79 83 88 90 93 95 97 95 96 94 93 93 93 92 90 89 86 87 88 88
64 65 67 69 67 70 73 69 60 60 69 85 83 85 86 91 94 97 97 96 96 96 96 95 95 93 92 90 88 88 89 88
59 72 71 69 69 71 61 60 67 67 71 90 88 90 91 93 95 98 99 98 97 98 97 96 94 94 93 92 91 90 90 88
54 63 68 63 68 70 70 71 64 62 67 88 88 88 91 92 94 97 97 99 99 99 97 96 95 93 95 94 94 94 91 90
49 52 57 53 59 62 64 61 63 67 71 79 83 84 88 90 92 95 94 95 97 97 97 96 95 93 94 95 96 96 94 92
55 56 57 55 55 57 56 62 60 69 69 78 83 85 88 91 92 88 90 92 94 95 95 94 94 94 92 94 95 96 94 92
48 55 56 54 58 58 58 60 62 65 65 84 84 83 83 87 85 85 87 88 91 93 94 94 93 93 92 92 94 94 92 92
44 54 53 47 56 58 61 64 64 60 70 81 78 80 79 80 81 81 82 84 86 88 91 94 95 94 92 92 94 92 90 90
44 49 37 57 68 69 64 65 70 70 73 79 78 81 78 78 76 76 79 80 82 87 89 91 96 100 96 94 90 90 89 88
41 44 51 55 56 56 58 63 68 67 71 72 76 79 78 76 76 76 76 78 80 84 86 87 92 95 96 93 91 89 88 87
43 34 34 41 46 53 59 46 61 63 65 69 75 70 79 72 73 74 75 76 77 82 86 89 89 95 95 93 90 88 88 88
39 36 45 47 44 47 39 48 57 60 62 67 71 69 69 68 67 68 70 74 81 86 87 89 92 96 94 92 90 90 90 90
38 34 32 47 42 38 44 56 55 56 59 60 65 66 64 64 63 64 66 73 85 87 91 94 94 94 90 88 90 89 89 89
42 43 46 46 43 47 50 51 53 54 56 56 59 59 61 62 62 62 65 68 78 83 86 90 92 92 87 87 89 88 88 87
38 47 43 45 48 48 50 51 55 56 54 56 55 58 60 60 62 63 64 64 67 73 74 76 82 87 88 88 88 87 85 85
37 41 42 45 47 47 50 54 55 56 54 54 54 55 56 57 59 63 63 64 65 64 70 71 74 76 79 81 87 86 85 87
35 40 41 43 47 49 50 51 55 54 53 56 55 54 56 57 60 64 64 64 63 64 66 68 71 76 78 81 81 83 85 88
39 43 45 46 47 49 49 52 53 52 54 55 55 56 57 58 60 63 66 66 67 67 65 67 68 69 74 77 81 82 83 84

GFSFLT2_sfc_temp_057.txt.gz
Temp
80 83 81 76 71 82 73 77 73 78 81 89 93 94 91 91 98 95 99 99 98 97 96 95 94 93 91 90 87 87 87 86
78 80 80 78 84 70 72 58 58 72 76 77 83 88 93 94 96 92 94 100 100 99 98 97 97 95 94 93 89 88 89 89
75 70 70 73 71 73 76 72 62 63 73 90 88 89 90 94 97 99 99 100 101 101 100 99 99 97 95 93 91 89 90 89
66 76 79 77 74 74 65 63 72 71 74 95 94 95 94 95 97 100 101 102 102 103 102 100 98 97 97 95 93 92 91 89
58 68 72 69 74 74 75 75 66 66 70 93 93 93 95 95 96 98 99 102 103 104 102 100 99 97 98 97 96 96 92 92
54 58 64 63 67 72 72 64 67 70 75 84 87 87 91 94 96 98 99 100 102 102 101 100 99 97 97 98 98 98 95 94
61 63 63 61 63 66 64 66 61 70 73 80 86 88 91 93 95 95 97 99 101 102 100 99 98 97 96 98 98 99 95 95
53 60 61 57 62 63 64 65 65 67 67 82 84 86 89 91 91 91 92 95 97 99 100 99 98 97 96 96 98 97 94 94
47 58 58 52 60 63 65 68 68 62 71 80 80 80 85 89 90 89 90 92 93 95 97 100 101 99 98 95 97 96 93 93
42 49 39 60 71 69 66 69 72 72 74 77 79 79 81 86 83 84 86 87 89 92 95 97 102 104 100 99 93 93 92 93
39 42 52 59 61 55 45 56 70 73 75 79 82 84 81 86 83 82 84 85 86 90 91 91 95 99 100 99 95 93 93 91
42 38 35 55 57 58 58 52 72 71 75 77 77 71 76 76 77 78 80 83 84 86 88 90 90 94 97 98 97 91 92 92
40 39 49 56 57 60 41 46 50 65 69 73 71 71 72 73 72 74 75 77 79 84 87 88 91 93 91 95 96 96 95 94
41 37 35 55 57 46 46 45 47 57 62 64 68 69 68 69 65 67 70 70 74 81 90 93 94 93 91 89 95 95 93 92
48 46 53 52 50 55 51 45 46 54 59 60 62 64 62 61 62 65 64 64 68 74 87 91 93 95 90 89 94 93 91 89
43 49 45 46 50 50 48 46 50 55 58 58 57 62 59 62 60 63 62 61 64 66 71 77 80 82 90 92 93 90 88 88
37 41 42 46 46 47 48 50 53 55 56 56 56 58 57 57 56 62 61 61 62 62 63 66 69 71 75 78 89 89 88 89
35 40 40 42 46 47 46 50 51 51 53 55 56 55 57 55 57 61 60 61 60 61 61 62 64 65 67 71 77 82 82 86
40 43 44 46 47 47 47 50 50 50 50 54 55 56 57 56 59 59 61 60 61 61 62 62 65 64 65 68 70 80 81 84

GFSFLT2_sfc_temp_063.txt.gz
Temp
75 75 73 63 55 65 53 57 49 56 63 74 78 75 75 76 73 74 75 72 78 86 86 86 84 82 81 79 79 78 78 78
71 73 73 66 67 52 53 42 41 52 56 58 68 74 75 70 71 72 71 72 71 73 82 84 87 84 83 80 79 79 80 79
61 57 58 60 55 55 55 51 46 45 53 70 72 72 72 73 75 74 71 70 70 71 73 75 80 87 84 81 79 79 80 80
51 64 68 65 58 56 47 47 50 50 55 77 76 80 76 80 81 77 73 74 71 72 71 71 71 87 86 84 80 80 81 81
44 52 58 56 61 61 56 52 49 46 53 75 74 73 75 75 72 78 78 75 76 75 76 80 76 78 88 87 83 82 82 80
36 44 52 50 56 60 54 45 48 52 57 69 67 68 73 74 75 75 76 75 75 79 77 79 83 80 88 88 88 84 82 82
48 53 54 54 55 58 54 52 44 53 58 60 64 68 71 75 75 73 72 75 75 78 77 71 78 77 86 89 89 88 83 82
43 53 53 51 55 56 59 59 58 58 58 67 70 70 71 74 74 70 66 66 70 75 74 78 77 76 82 89 89 89 86 83
33 47 48 40 51 54 57 59 57 51 58 64 59 67 69 65 66 65 65 65 67 73 69 71 71 75 73 78 87 88 87 84
32 37 28 45 57 59 57 59 61 60 55 55 55 62 63 66 64 62 63 64 65 67 69 71 69 71 70 70 72 75 84 84
30 31 41 48 53 52 48 48 54 52 53 54 57 62 60 65 65 62 62 64 64 66 66 68 74 70 72 73 72 72 80 83
34 28 29 43 56 60 57 40 54 53 52 51 54 47 51 61 64 63 64 66 63 64 68 68 72 73 72 71 72 76 85 85
34 32 39 51 57 59 39 38 51 53 51 51 45 48 53 62 61 64 63 63 64 64 64 67 69 69 72 72 79 75 82 84
35 31 29 48 51 41 44 48 50 51 51 50 51 52 55 59 60 60 61 62 64 61 62 66 66 65 66 69 71 77 81 78
36 35 42 47 46 49 48 46 47 46 49 50 50 51 52 56 57 59 60 61 62 60 62 64 64 64 64 66 68 70 75 79
37 44 41 43 48 48 48 47 49 49 50 49 49 52 53 57 56 58 59 59 61 58 60 59 62 64 64 65 66 66 69 78
37 42 41 45 44 46 46 48 48 50 49 49 50 52 53 54 54 57 55 59 59 58 59 60 60 60 63 63 64 64 67 76
33 41 39 39 44 47 45 45 46 46 48 50 51 50 53 53 53 55 57 57 57 58 58 58 60 59 60 60 60 62 63 71
40 44 43 44 46 47 44 46 47 47 48 47 50 52 54 53 53 56 57 55 56 57 57 57 58 57 58 58 59 60 61 64

GFSFLT2_sfc_temp_066.txt.gz
Temp
68 66 62 58 51 57 48 41 45 49 57 67 69 70 72 73 73 74 76 75 83 84 83 79 80 79 79 76 77 77 77 77
64 66 64 56 62 51 46 38 36 46 49 53 63 66 69 70 70 72 73 72 81 81 82 81 81 81 80 79 78 77 78 78
56 50 48 52 49 49 48 46 40 39 47 59 61 65 67 69 73 73 72 72 75 75 75 79 82 81 80 79 78 77 78 78
45 56 60 56 48 45 40 42 43 44 48 66 66 66 68 71 73 76 74 75 75 76 75 75 79 81 80 80 79 79 79 78
42 45 51 48 52 45 45 41 42 42 47 66 69 69 70 69 69 74 71 71 72 73 73 78 77 82 82 81 79 80 80 79
33 37 45 44 51 52 42 36 40 42 49 57 62 66 67 68 66 68 70 70 67 71 74 77 74 73 77 82 81 81 80 79
40 47 49 49 49 51 46 43 39 47 49 54 56 61 63 67 66 65 64 66 66 68 72 72 73 73 75 80 83 81 80 79
37 48 48 45 50 51 52 52 49 51 48 52 57 61 60 61 62 61 62 64 66 67 68 69 75 73 72 72 77 82 80 79
27 42 43 37 44 48 49 50 48 42 45 52 52 57 57 57 59 59 60 63 63 63 64 65 68 69 70 71 71 82 80 80
28 34 25 41 51 53 49 49 50 49 50 51 52 55 57 59 57 58 59 60 60 62 63 66 67 70 70 72 72 72 74 80
28 28 36 44 50 49 45 41 50 47 49 51 53 56 53 56 60 59 59 61 61 63 63 64 67 68 70 71 69 69 72 74
31 26 25 38 46 55 52 35 49 49 48 47 49 42 46 53 58 60 61 62 60 63 64 65 66 65 68 69 68 67 71 72
30 28 35 43 47 52 35 35 45 47 45 45 41 44 50 54 55 60 61 62 62 60 62 64 64 62 64 66 67 68 70 73
33 28 27 45 46 38 42 43 44 44 44 43 46 48 50 52 53 55 59 61 60 57 58 62 63 60 61 62 63 66 66 67
33 36 43 45 43 47 44 41 42 42 46 44 47 46 48 49 51 53 55 58 60 57 57 59 63 63 61 61 62 63 64 65
33 40 40 42 44 44 44 44 48 48 48 48 45 46 48 49 51 52 53 53 58 57 58 58 60 61 62 63 62 60 61 63
33 37 39 42 44 43 44 46 48 48 48 46 48 47 48 48 50 51 52 53 55 55 55 57 58 59 60 61 60 59 60 61
29 37 37 40 43 44 43 43 46 46 46 48 49 48 48 48 52 51 52 53 53 57 55 54 54 57 57 55 56 56 58 60
38 41 41 42 44 46 44 45 46 46 47 46 48 49 49 49 51 52 53 55 51 54 53 51 52 53 55 54 54 55 56 58

GFSFLT2_sfc_temp_069.txt.gz
Temp
64 63 58 53 47 51 43 39 44 46 54 63 67 67 67 70 71 71 74 76 80 80 80 78 78 77 76 75 76 76 76 75
60 62 61 54 55 46 44 37 36 43 46 49 57 61 65 66 68 71 73 73 76 80 79 80 80 79 79 77 76 77 77 77
52 49 48 48 44 42 43 41 37 37 44 58 58 60 62 64 69 69 73 73 72 77 81 80 81 80 79 78 77 77 77 78
42 52 56 51 44 39 36 37 38 40 42 61 60 63 64 63 65 69 74 73 72 73 74 75 76 78 77 79 78 77 78 78
37 44 48 45 47 41 39 35 35 36 42 63 60 61 63 61 63 66 67 67 66 68 67 69 70 72 72 74 75 78 78 77
35 35 41 41 47 47 39 34 36 38 43 50 53 55 58 59 61 63 63 64 65 65 66 67 70 71 70 74 76 75 78 77
38 46 45 44 45 47 41 41 37 43 42 47 51 55 55 58 60 62 61 62 62 62 64 66 68 71 73 73 75 76 76 77
36 45 45 42 46 48 48 48 46 47 43 49 53 56 55 55 57 58 59 60 61 62 64 65 66 67 68 71 72 77 77 76
27 39 41 35 42 44 45 46 45 41 42 49 49 52 51 53 55 56 57 58 59 60 62 63 64 67 67 69 70 72 77 77
27 31 25 39 47 50 46 47 47 46 47 49 50 52 52 53 51 55 57 57 58 60 60 62 65 67 67 69 69 71 72 77
27 26 34 42 45 44 40 39 47 44 47 48 50 52 50 53 54 54 56 58 58 60 61 63 64 64 66 70 69 68 70 70
28 25 25 37 44 49 46 35 46 46 44 44 46 40 47 50 53 53 55 59 59 60 62 62 62 62 64 65 65 65 67 69
27 25 33 41 44 47 33 33 42 44 42 41 38 42 46 50 51 53 54 57 61 60 60 62 62 61 61 62 61 63 66 67
32 27 25 44 43 37 39 39 41 42 42 41 42 44 47 49 48 50 51 54 60 58 59 60 61 60 59 59 61 63 64 65
33 32 40 42 40 43 42 39 39 40 42 44 47 47 47 46 47 49 51 52 56 57 58 60 61 60 57 59 60 60 61 62
32 36 37 41 43 42 41 41 43 43 44 47 47 47 45 49 51 48 51 51 53 55 55 57 58 58 58 60 59 57 58 60
30 35 37 40 42 42 42 44 45 48 47 47 48 45 45 45 46 47 49 51 52 53 56 57 55 56 57 58 57 55 56 59
28 36 36 37 41 43 42 43 44 45 45 47 48 46 48 46 47 47 48 51 52 55 55 54 51 51 53 52 52 53 54 57
38 39 39 41 43 44 43 46 46 46 46 45 47 47 47 47 49 51 50 51 54 55 54 53 49 49 50 50 51 51 52 54

GFSFLT2_sfc_temp_072.txt.gz
Temp
61 59 56 51 45 48 41 36 42 45 50 60 65 65 65 66 68 68 71 74 76 76 77 76 76 75 75 74 74 74 74 73
57 59 58 53 51 45 43 37 35 42 43 45 53 56 60 60 61 65 69 70 74 76 77 77 78 77 77 76 75 75 75 75
50 45 42 46 43 41 42 39 37 36 41 54 52 56 57 59 61 63 67 70 72 75 78 78 79 78 77 77 76 75 76 75
38 49 52 47 41 38 40 38 36 38 41 54 56 58 59 60 62 63 65 69 70 71 71 72 72 76 74 77 77 77 76 75
35 42 46 44 45 38 36 35 34 37 41 55 56 57 57 58 62 62 63 63 65 67 67 69 71 72 71 73 75 77 74 76
33 35 40 40 45 45 37 35 34 37 42 47 52 54 53 56 61 61 61 61 62 62 64 66 68 70 71 73 72 74 76 76
39 43 44 43 43 45 40 40 37 41 43 44 50 52 52 55 58 59 59 60 61 61 63 64 65 67 69 72 73 73 75 76
35 43 43 41 45 46 46 46 43 45 42 48 51 52 51 52 53 54 56 59 60 61 62 63 64 66 68 69 70 75 75 75
28 36 38 34 39 43 43 44 43 39 41 48 47 50 49 49 51 52 53 56 58 59 60 61 63 65 65 67 70 70 74 73
27 30 27 37 45 49 45 46 46 45 46 47 47 50 52 51 49 50 51 53 55 58 59 61 63 64 64 68 70 70 71 72
26 25 32 41 43 43 41 41 46 44 45 46 48 50 50 51 51 50 51 52 54 58 60 61 62 63 63 66 66 67 68 68
27 26 26 36 43 47 44 33 44 45 42 42 44 41 47 48 50 51 52 53 54 56 60 61 63 61 61 63 64 63 65 66
27 24 32 40 44 46 33 34 42 44 43 42 39 42 46 49 49 51 51 52 54 55 57 60 61 61 59 60 61 62 64 65
28 25 25 44 43 38 39 40 42 42 42 42 43 44 46 48 48 49 49 51 54 53 54 58 60 60 59 58 61 61 62 63
31 30 39 42 41 43 42 40 40 40 42 42 42 43 46 47 48 49 49 51 53 52 53 57 59 59 58 59 59 59 59 60
32 35 37 41 42 42 43 41 43 42 42 43 42 45 48 48 48 47 49 49 51 51 51 53 58 60 58 59 59 57 56 58
30 35 36 40 42 43 43 44 44 45 47 47 47 46 47 48 48 47 47 49 50 49 50 53 58 57 56 57 56 54 55 56
30 37 37 38 42 43 42 43 44 46 45 47 47 46 47 46 48 48 47 49 49 50 51 53 57 56 54 54 53 52 53 55
38 39 40 42 44 44 43 44 48 47 47 45 47 47 46 45 47 48 49 50 50 51 52 54 54 54 53 51 50 50 50 52

GFSFLT2_sfc_temp_075.txt.gz
Temp
67 67 67 64 63 68 61 58 62 63 65 70 69 67 66 67 68 71 80 84 85 85 85 84 83 83 82 81 80 81 82 81
64 67 68 66 66 62 63 52 53 55 56 59 58 57 60 62 62 66 72 78 84 86 85 85 86 85 84 83 81 82 83 83
62 57 54 64 62 59 64 59 57 53 55 61 54 56 57 60 62 63 72 77 81 85 87 86 86 86 85 84 82 82 82 83
52 59 60 60 55 56 61 54 55 61 54 62 61 59 59 60 61 64 66 70 76 79 83 85 83 85 85 85 84 83 82 82
51 58 60 56 57 56 55 59 52 58 54 62 64 62 59 59 61 61 64 65 66 69 70 75 81 84 86 82 86 87 82 81
54 51 54 52 54 56 57 58 52 56 54 57 59 59 61 61 61 61 61 62 62 63 65 66 70 74 79 82 86 87 87 84
52 53 53 52 53 54 54 54 54 55 55 54 56 58 60 62 63 62 60 61 62 61 62 64 66 68 73 77 78 81 83 84
45 50 51 50 53 53 54 54 54 55 53 58 58 61 60 60 61 61 61 61 63 63 63 63 64 65 67 69 73 74 76 81
42 47 49 47 52 53 54 55 57 53 57 58 56 57 57 58 60 59 60 61 61 62 63 63 63 64 64 65 70 74 75 77
44 45 37 50 56 54 54 54 55 55 56 55 55 58 59 59 58 58 59 60 61 63 65 66 67 65 64 65 67 72 76 76
41 43 44 49 52 52 52 52 54 53 53 54 57 60 58 58 59 59 60 61 62 64 65 66 68 69 66 64 65 65 68 71
41 39 38 48 51 54 55 47 50 52 50 52 56 56 58 58 59 59 60 61 61 63 65 66 67 69 68 68 68 67 64 65
42 40 46 50 52 54 43 45 51 52 51 51 51 54 56 58 58 60 60 60 60 62 62 63 65 67 65 67 67 67 68 66
40 38 36 52 51 46 49 51 52 52 51 51 52 53 54 56 57 57 58 58 60 60 61 63 64 65 65 64 67 66 66 66
44 45 49 52 52 53 52 50 50 50 51 51 51 52 53 53 55 57 57 58 59 59 59 61 62 63 62 65 67 65 62 61
43 49 49 52 53 53 52 52 52 52 52 53 51 52 53 54 55 56 57 57 58 58 57 58 61 61 63 65 66 64 62 60
44 47 47 50 51 53 52 52 52 53 52 52 52 52 51 51 53 54 54 56 57 56 57 57 59 60 63 65 65 63 63 63
44 52 51 51 52 53 51 51 52 52 52 52 51 51 51 50 49 48 50 52 53 54 54 55 58 60 62 65 62 61 61 63
53 53 54 54 54 54 52 53 54 54 54 52 53 53 53 49 50 50 50 49 49 49 52 53 51 53 58 59 55 56 59 60

GFSFLT2_sfc_temp_078.txt.gz
Temp
74 77 77 75 72 83 73 77 72 73 69 75 76 73 72 68 71 75 87 91 92 93 93 93 92 91 90 88 86 86 88 87
71 76 77 77 82 70 73 60 60 67 66 67 65 63 64 62 63 69 83 84 92 93 93 94 94 94 92 91 88 88 88 89
71 68 70 72 72 74 79 74 66 61 65 67 61 60 60 60 62 65 67 75 79 89 92 94 95 95 94 92 90 89 89 88
65 68 70 71 70 74 68 65 72 72 61 71 69 63 63 61 61 64 66 65 66 70 83 93 93 94 94 94 92 92 89 86
61 66 68 68 69 71 73 75 68 67 59 73 72 68 66 62 62 63 63 64 65 66 66 69 73 87 93 93 94 93 89 87
62 63 69 63 65 68 71 69 69 70 60 65 68 68 70 69 66 65 65 64 65 64 63 64 67 70 74 86 93 94 94 91
64 64 65 64 63 64 66 66 66 67 65 65 67 67 69 71 71 69 68 67 67 66 65 64 65 67 70 72 77 86 88 91
58 61 62 60 63 62 63 64 66 68 62 70 69 70 69 69 69 68 68 69 70 71 71 69 68 67 65 66 69 77 81 84
55 57 59 56 64 64 65 67 68 64 67 68 66 66 67 68 68 66 67 68 69 71 72 73 72 71 68 66 69 70 75 82
59 55 47 58 65 66 65 65 67 66 66 67 66 67 68 68 66 66 67 68 69 72 72 73 76 72 71 70 69 68 67 68
53 54 55 57 59 61 61 59 64 65 64 65 66 68 66 67 67 67 68 70 70 72 73 73 74 75 74 73 75 69 67 66
53 48 46 59 61 64 66 56 63 64 62 63 66 64 63 66 67 68 69 70 69 70 73 73 72 75 73 75 74 74 73 68
53 48 56 60 61 65 51 53 61 63 62 63 63 65 64 66 66 68 68 68 68 69 69 71 72 72 70 72 73 74 75 74
52 47 43 62 59 55 58 61 62 61 61 61 61 63 63 65 65 65 66 67 68 67 67 69 70 70 68 67 71 73 73 72
54 56 58 62 61 62 62 59 60 61 61 60 60 61 62 62 63 64 65 65 67 67 66 67 68 68 66 67 68 70 71 70
52 60 58 59 61 62 61 62 61 61 60 61 59 60 60 61 62 62 63 62 64 64 64 63 66 66 66 67 68 68 68 69
54 59 57 60 61 61 60 60 60 61 61 60 59 59 59 59 60 60 59 59 58 59 57 55 57 60 65 66 68 68 69 70
52 61 59 60 62 62 59 59 60 59 59 60 60 58 56 56 54 53 54 57 58 56 57 58 59 60 62 61 58 61 66 70
60 62 63 63 63 63 61 61 61 60 60 59 61 59 58 57 55 55 55 56 54 53 54 55 55 56 60 61 59 55 57 63

GFSFLT2_sfc_temp_081.txt.gz
Temp
84 86 83 79 74 87 79 81 76 76 72 77 80 76 71 70 78 84 92 88 88 91 88 91 93 94 93 91 88 88 89 88
79 82 84 80 87 75 78 64 64 71 68 70 71 68 65 63 65 72 88 75 70 82 92 90 91 96 95 94 90 90 90 90
77 75 75 77 76 80 83 79 70 63 65 76 69 65 61 61 63 64 68 70 70 77 79 81 95 97 97 95 93 91 91 91
71 79 80 81 79 80 72 69 77 73 61 77 72 69 64 61 63 66 68 68 66 70 72 73 72 81 94 97 96 95 93 91
65 72 77 75 79 80 83 82 72 70 61 76 73 69 65 62 63 64 65 70 67 64 64 67 73 76 74 74 88 98 94 94
63 68 75 70 73 77 78 72 73 72 65 71 73 72 69 67 69 67 66 66 68 64 63 64 65 69 74 78 81 76 86 94
70 73 76 74 73 73 72 76 70 68 68 71 73 74 74 75 73 72 71 71 68 66 64 64 65 64 66 71 75 78 82 83
66 69 70 68 70 71 73 73 75 71 65 76 75 75 74 73 73 71 72 73 74 74 74 72 69 68 67 67 70 73 73 77
61 67 67 62 69 71 72 74 76 69 71 74 72 72 72 72 72 71 72 72 73 75 75 77 76 75 71 70 72 70 70 70
61 63 51 67 73 76 73 74 76 73 73 74 74 74 74 75 72 71 72 73 74 76 76 77 80 78 74 74 73 71 69 69
56 57 63 63 66 69 70 67 74 72 73 73 74 74 69 72 73 72 73 74 75 77 77 76 77 78 77 78 76 78 74 70
60 53 50 64 70 73 76 61 72 73 71 71 73 66 67 71 73 72 73 74 73 75 77 77 75 78 76 77 77 76 76 76
58 55 61 67 68 71 54 59 71 73 71 70 70 68 67 71 71 72 72 72 73 74 73 73 75 75 72 73 73 74 76 77
58 54 50 69 66 60 63 69 70 69 68 67 68 69 69 70 70 70 70 71 72 72 72 73 73 72 70 69 72 72 73 74
60 59 64 68 67 69 70 66 67 68 68 67 67 67 67 68 68 68 68 68 70 70 70 71 71 70 68 68 70 70 70 70
59 65 63 65 68 68 68 68 68 69 68 67 66 66 66 67 67 67 67 65 65 65 64 64 64 66 66 67 68 67 68 69
60 64 64 66 67 67 66 67 67 68 67 66 66 66 65 64 64 64 63 63 62 61 61 60 61 61 63 66 66 65 66 68
57 65 64 64 68 69 65 64 66 65 64 65 64 63 62 63 62 62 62 62 62 60 60 60 59 60 62 64 62 60 63 66
64 66 67 68 68 69 66 66 66 66 66 64 65 64 63 62 61 59 61 61 59 59 59 58 59 57 58 60 59 57 57 60

GFSFLT2_sfc_temp_084.txt.gz
Temp
87 88 86 79 74 85 76 78 71 71 69 75 75 72 74 75 77 77 76 79 78 84 87 90 88 88 87 83 83 84 85 84
85 88 87 80 86 72 75 60 61 66 64 66 70 66 67 67 67 67 67 70 70 71 70 91 90 91 90 86 84 85 86 86
80 75 74 76 74 78 79 76 66 60 58 76 70 68 64 63 65 65 65 66 68 68 67 73 84 85 92 89 86 87 87 86
71 82 85 83 78 78 69 66 74 59 57 75 72 67 66 63 64 67 67 65 66 67 66 66 69 75 76 79 91 90 88 86
66 75 81 75 79 81 81 80 68 55 59 75 69 64 65 64 65 67 68 68 66 66 65 65 66 66 71 75 77 80 89 90
56 66 74 70 75 79 78 70 72 64 62 67 66 64 66 65 66 67 68 69 69 67 65 65 65 65 68 72 73 76 76 73
66 75 77 75 75 76 73 74 58 63 64 66 68 69 70 71 71 70 70 70 70 69 68 66 65 64 66 68 70 72 74 74
67 73 73 73 76 76 76 76 70 71 64 74 72 74 73 72 71 70 71 72 73 73 73 70 68 64 65 66 66 68 70 70
61 69 68 63 70 71 74 77 69 60 64 73 71 71 71 71 71 70 71 72 72 73 74 74 73 72 68 69 68 66 68 70
60 64 51 69 77 77 75 76 77 72 71 73 73 73 74 74 72 71 72 72 73 75 75 75 77 76 73 73 70 69 68 70
54 57 64 66 70 72 71 70 77 72 73 73 73 72 69 74 73 72 72 73 74 76 75 74 75 76 75 74 75 74 73 72
58 51 48 61 72 77 79 63 77 76 74 73 72 63 64 72 73 73 74 73 73 75 76 74 74 75 74 74 73 71 72 73
57 53 57 69 71 74 58 62 76 77 75 73 67 68 70 73 72 73 73 73 73 74 72 72 73 73 70 70 69 70 72 72
58 54 49 70 68 61 64 72 74 75 74 69 69 70 70 71 70 71 71 72 73 71 71 72 71 70 67 66 68 69 70 70
60 55 65 68 65 69 71 67 69 69 71 71 69 69 70 69 69 69 69 68 70 69 68 68 66 66 63 64 67 66 66 66
61 63 65 67 69 70 71 69 70 72 70 70 68 69 68 68 68 68 66 64 65 65 64 63 63 63 63 64 65 64 63 64
61 65 66 67 68 69 68 70 70 70 70 69 68 67 67 65 65 64 64 63 63 61 61 61 61 61 63 63 62 60 60 62
57 65 63 66 69 70 67 66 69 67 66 67 67 66 65 63 63 63 62 62 61 61 61 60 60 60 60 60 60 59 58 60
63 66 68 69 70 71 68 68 69 68 68 65 66 65 64 62 61 57 61 61 60 59 60 59 59 58 58 59 59 57 57 58

GFSFLT2_sfc_temp_087.txt.gz
Temp
80 79 73 66 62 69 58 63 54 53 57 63 67 67 70 68 68 68 68 68 69 72 74 77 80 81 80 78 77 77 77 75
79 79 78 71 70 60 56 47 46 51 51 53 60 58 62 62 64 65 68 71 71 72 71 70 73 83 82 80 78 78 78 77
72 68 67 64 59 58 61 58 50 46 51 61 59 61 59 61 63 64 64 67 69 69 68 68 69 75 77 78 79 79 80 78
59 72 77 70 65 61 51 52 55 53 49 63 60 62 62 62 64 64 64 64 66 67 67 68 67 68 69 70 71 73 82 81
53 65 70 62 66 60 62 59 57 53 49 61 62 62 62 62 64 64 63 63 63 64 64 65 66 67 68 69 69 71 70 75
46 51 55 59 67 68 58 51 52 55 51 57 59 59 61 62 64 65 64 64 63 62 63 63 64 65 67 68 69 70 70 69
60 62 64 64 67 70 60 58 53 55 54 58 60 61 62 64 65 65 64 63 62 61 62 63 64 65 66 66 68 68 68 68
55 63 66 65 70 72 68 66 61 61 55 64 66 66 66 67 67 66 67 66 66 65 63 62 62 62 65 64 65 68 67 67
45 62 63 56 65 66 65 68 62 52 56 66 64 65 65 64 65 64 66 65 65 66 65 64 64 64 63 64 65 65 65 65
46 54 44 57 67 70 68 69 65 62 62 63 66 65 66 66 63 63 64 64 64 64 63 65 66 66 65 66 66 66 65 66
43 43 56 59 62 62 61 58 66 64 68 67 66 65 61 66 65 63 62 63 63 65 64 63 65 66 66 66 66 67 67 67
44 39 40 51 64 69 66 51 68 66 64 65 65 52 53 63 65 64 64 63 63 64 64 63 63 64 63 63 63 63 65 66
46 44 52 61 65 67 50 50 62 66 65 64 55 58 60 63 62 63 62 63 64 62 61 60 61 61 59 59 58 61 63 64
47 43 39 60 62 53 54 58 63 64 63 60 61 62 62 62 61 62 61 62 62 59 58 59 59 58 55 55 58 59 59 59
47 46 54 59 57 61 62 59 61 59 61 63 61 60 61 59 59 59 58 58 59 57 56 56 56 55 53 54 56 56 55 56
50 55 57 60 63 64 64 62 64 63 62 63 59 60 59 58 57 56 56 55 56 55 53 52 53 54 53 54 54 53 52 53
51 54 57 60 61 62 63 64 65 64 64 62 60 59 57 55 53 54 54 54 54 53 52 51 52 52 52 52 52 51 51 52
43 53 52 54 59 62 61 60 62 61 60 61 60 56 56 53 53 53 53 53 52 52 51 51 52 50 50 51 51 48 48 50
51 57 58 60 63 64 61 61 63 61 60 58 60 57 56 53 52 53 53 52 51 51 51 50 51 50 51 51 50 49 47 49

GFSFLT2_sfc_temp_090.txt.gz
Temp
73 74 70 62 54 62 53 58 50 52 55 62 64 64 66 65 69 69 71 71 71 69 71 71 75 77 77 75 75 72 73 73
71 72 72 66 68 53 51 48 44 48 49 50 56 59 62 62 61 63 68 68 69 69 71 70 71 71 78 78 76 75 73 73
62 58 61 59 56 54 56 50 48 45 48 59 56 59 59 61 62 63 64 66 69 69 68 69 70 70 71 73 75 73 73 73
54 66 70 63 60 57 50 50 48 50 49 61 59 60 61 61 62 63 63 65 68 68 68 68 68 69 69 70 70 70 71 72
49 56 61 59 60 54 53 52 50 49 48 60 60 60 61 61 62 62 63 63 64 65 66 67 67 68 69 69 69 70 70 70
38 46 54 57 61 59 53 48 48 47 52 55 58 59 61 62 62 62 62 62 62 63 63 65 66 66 67 69 69 69 69 68
51 57 60 59 58 62 54 53 50 52 52 55 59 58 61 63 63 62 61 61 61 62 62 64 65 65 66 68 68 69 68 68
48 58 59 59 64 65 63 62 55 55 53 60 60 61 62 64 64 62 61 62 62 62 62 62 63 64 64 65 66 67 67 67
42 51 53 49 55 60 65 62 57 51 54 59 59 61 62 64 64 63 63 62 62 62 61 62 61 62 62 64 66 64 65 65
42 49 40 52 64 65 64 64 61 58 59 61 62 64 63 62 63 64 63 61 60 60 62 62 63 66 64 63 63 65 65 65
38 38 47 55 61 58 54 52 62 61 63 61 62 61 57 62 62 59 59 59 60 61 61 63 62 62 62 61 61 62 63 63
43 39 37 49 61 65 61 45 59 62 60 60 61 50 53 61 62 60 60 60 60 59 60 59 57 60 59 58 58 58 59 60
43 39 49 58 61 65 45 45 56 61 61 61 54 54 59 61 62 62 60 59 58 57 55 54 55 57 54 54 53 55 57 58
42 40 36 59 60 52 52 52 56 56 56 56 60 59 59 60 57 58 57 57 57 54 53 53 54 54 51 51 52 54 54 54
43 43 51 54 54 58 58 54 53 54 57 61 59 59 58 55 55 55 56 54 55 53 51 51 51 51 48 49 51 52 51 51
46 50 53 56 58 60 62 59 60 60 60 58 55 57 55 54 53 53 53 52 52 50 48 48 49 49 48 49 50 49 48 49
44 50 54 56 58 58 60 61 61 60 60 58 57 53 53 51 51 51 50 51 51 48 48 47 47 47 48 49 48 47 47 48
39 48 48 51 57 60 59 59 59 58 56 57 56 52 53 50 49 49 49 49 48 47 47 46 46 47 48 48 47 45 45 46
47 51 52 54 59 60 59 59 59 57 56 54 53 53 52 50 48 52 49 48 47 47 47 47 46 47 47 48 48 46 44 44

GFSFLT2_sfc_temp_093.txt.gz
Temp
68 69 67 56 52 60 53 44 46 48 52 59 64 63 65 66 69 68 69 70 71 70 71 71 73 73 76 74 75 71 71 71
67 66 65 63 63 52 47 41 40 45 46 50 55 58 60 60 61 63 66 68 68 69 70 70 70 73 74 73 75 72 70 70
58 55 55 56 53 50 51 47 43 43 46 56 57 61 59 60 62 62 64 65 67 68 69 69 70 70 72 72 72 72 71 70
52 63 62 60 58 54 48 45 45 49 46 61 59 59 60 61 62 63 64 66 66 67 68 68 68 69 69 70 70 69 69 71
48 52 57 53 56 47 50 48 46 46 46 59 59 57 60 60 61 62 63 64 66 67 67 68 68 69 69 69 69 69 68 69
39 43 49 48 55 57 49 46 45 46 51 54 57 59 61 61 62 62 62 62 63 64 65 66 67 68 69 69 70 69 69 68
46 51 53 53 55 57 53 51 50 49 52 56 56 59 61 61 62 61 61 62 62 62 64 65 66 67 68 69 69 69 68 68
47 54 53 53 56 57 59 55 53 54 54 60 59 62 61 60 61 60 60 61 62 62 63 64 64 65 66 66 67 68 67 67
39 48 49 46 52 53 57 56 56 49 53 56 57 60 61 61 59 60 61 60 61 62 62 62 63 65 64 64 65 65 65 66
38 43 40 49 56 58 59 59 57 53 55 58 60 63 63 64 62 61 62 61 60 60 62 63 64 64 64 64 63 63 63 65
37 37 48 54 55 53 49 53 58 56 57 59 59 61 58 65 65 62 61 61 59 60 61 62 62 61 60 60 60 61 60 61
41 36 34 48 58 62 56 48 62 60 57 57 59 48 51 60 63 62 61 61 59 60 61 58 55 58 58 56 56 56 57 58
42 39 45 56 58 61 44 45 59 57 57 57 50 52 56 58 59 59 57 56 57 56 53 52 53 55 52 52 51 53 56 56
38 38 38 57 59 53 51 48 56 55 53 52 54 57 56 56 55 56 54 54 55 52 50 50 51 52 48 48 50 52 52 52
41 41 52 54 50 55 55 50 51 53 54 56 57 57 56 55 56 56 54 53 53 50 49 48 48 49 47 47 49 50 49 49
44 49 51 54 57 57 56 53 56 56 58 58 56 56 54 53 52 52 52 51 50 49 47 45 47 47 47 48 48 48 47 46
41 47 52 55 56 57 57 57 57 57 58 57 55 53 53 51 52 52 50 48 48 47 46 44 45 45 46 46 47 45 45 46
40 47 45 48 54 57 57 57 57 58 56 55 55 51 51 48 48 49 48 47 46 45 45 44 45 45 45 46 45 44 43 44
46 48 50 51 55 56 55 56 57 57 55 53 52 52 50 48 47 50 47 46 46 45 45 45 45 45 46 46 45 43 42 42

GFSFLT2_sfc_temp_096.txt.gz
Temp
65 65 64 53 50 56 47 43 44 46 52 60 63 63 67 67 67 67 70 71 72 71 70 71 73 75 75 73 73 71 72 72
64 64 61 59 61 50 45 38 38 44 47 50 56 58 61 64 65 66 68 69 70 70 71 71 72 74 77 75 72 72 72 72
56 52 53 54 50 48 48 45 41 40 45 55 56 60 60 61 63 63 66 67 68 68 70 71 71 72 73 72 71 72 72 71
52 56 59 55 50 51 46 44 43 46 46 61 62 62 62 61 62 64 64 65 67 68 68 69 69 70 71 70 70 72 72 72
46 50 54 51 51 46 46 45 44 47 47 61 61 60 62 61 62 63 64 65 65 67 67 68 68 69 69 69 69 69 70 70
40 42 47 47 52 52 47 44 45 47 48 55 58 59 60 60 62 63 63 65 66 66 67 68 68 69 69 69 69 69 69 69
46 50 50 50 52 53 48 49 50 51 50 54 59 60 61 62 62 61 62 63 64 65 65 66 67 68 69 69 69 69 68 68
46 51 51 51 54 54 54 53 51 50 49 56 63 62 60 62 62 61 62 62 63 64 64 65 66 67 67 66 68 69 68 68
40 47 49 44 50 50 51 56 53 49 53 57 57 58 58 58 61 61 61 62 62 62 63 63 64 65 64 65 66 66 66 66
38 42 37 48 54 57 53 55 54 53 55 59 60 60 62 62 59 60 60 60 60 61 61 59 60 61 63 64 62 62 61 63
36 35 43 51 53 52 47 51 56 57 59 58 60 61 59 63 61 59 59 59 59 59 59 58 59 60 60 59 61 61 60 58
38 36 35 47 56 59 56 45 60 57 56 58 61 51 53 60 61 60 60 59 58 59 59 58 59 61 58 57 57 56 57 58
38 37 42 53 54 58 44 45 57 59 57 58 51 52 54 61 59 59 58 58 59 58 55 55 55 57 55 55 54 56 58 57
36 34 37 55 57 52 51 50 54 55 55 53 53 55 54 54 54 54 53 54 55 53 51 52 53 54 51 50 52 53 54 54
40 40 50 54 53 54 55 52 52 53 54 56 55 54 56 55 55 52 52 52 53 51 49 49 51 52 50 49 51 51 51 50
43 47 50 54 56 55 55 55 55 55 56 58 54 55 55 54 53 52 51 50 50 50 48 48 49 50 49 50 50 50 49 49
43 48 52 55 54 55 54 55 56 57 57 57 56 53 53 52 51 52 51 51 50 49 48 47 49 48 49 49 49 48 48 48
41 46 47 49 54 56 56 55 55 55 54 56 56 53 53 51 52 52 51 49 49 48 47 46 47 47 48 48 48 47 47 47
46 48 49 52 54 56 56 56 56 56 55 54 54 55 54 51 50 51 49 48 48 48 47 47 47 47 47 48 48 47 45 46

GFSFLT2_sfc_temp_099.txt.gz
Temp
73 75 75 66 64 73 63 62 61 61 64 69 70 71 75 76 76 75 75 79 75 80 80 82 77 81 82 82 81 81 82 82
71 74 72 72 76 63 64 52 52 59 59 67 64 66 72 74 75 75 76 77 77 73 74 74 77 76 81 84 82 82 82 83
68 68 68 68 67 66 69 65 59 57 61 67 67 65 70 72 75 74 75 76 77 76 73 72 77 75 77 78 78 82 81 81
64 68 69 70 69 70 63 57 63 64 64 67 68 68 68 70 71 74 75 75 75 77 76 72 70 71 76 78 75 80 81 77
59 65 67 65 65 66 65 66 62 61 65 65 66 64 67 65 67 69 70 70 72 72 74 75 72 69 70 73 75 73 76 78
56 59 62 61 62 64 65 64 65 66 66 59 62 62 63 65 67 69 70 71 72 70 72 73 73 70 69 70 71 70 73 73
59 61 60 60 60 61 61 66 64 69 67 68 65 64 64 64 64 66 65 68 70 71 71 72 72 73 73 71 69 68 69 69
56 60 60 59 61 63 62 64 64 65 67 70 69 66 63 63 63 63 64 64 66 69 70 71 71 72 72 70 69 69 68 68
53 56 58 55 59 60 60 63 64 62 67 70 63 62 63 62 64 63 64 64 64 65 64 65 67 68 67 68 69 69 69 69
51 54 46 59 64 63 61 61 64 63 62 65 64 65 66 68 64 63 63 61 62 60 60 60 61 62 63 64 64 64 64 65
48 50 54 58 60 59 58 59 63 62 61 62 62 63 59 66 70 65 62 60 60 59 58 59 59 61 61 63 63 63 62 62
50 46 45 57 62 67 63 56 64 63 61 59 62 58 59 62 66 63 60 59 58 58 58 57 57 58 60 59 60 63 63 63
51 49 54 58 62 65 53 55 64 65 61 62 61 63 64 66 63 62 60 58 58 57 56 57 60 62 61 64 62 64 65 65
50 48 45 62 64 57 57 63 63 62 58 57 59 64 65 63 61 58 57 57 58 57 57 59 61 62 59 57 61 63 63 63
53 52 58 61 59 62 61 60 61 61 60 59 62 62 61 57 58 58 58 60 62 60 59 62 63 65 62 59 61 61 61 61
53 56 58 60 63 61 61 62 61 63 61 61 60 60 56 55 60 62 63 62 63 63 61 59 60 61 60 60 61 61 59 59
53 55 59 60 61 59 60 62 62 62 61 58 55 54 56 52 54 60 61 61 62 61 60 58 59 59 60 60 61 60 59 60
54 55 57 57 60 62 61 62 63 61 59 60 55 53 54 53 52 52 54 57 58 59 59 58 57 57 58 59 60 60 59 60
57 59 59 61 62 63 62 62 63 62 61 58 58 57 55 53 53 53 53 54 55 55 58 57 58 58 58 59 59 58 58 57

GFSFLT2_sfc_temp_102.txt.gz
Temp
80 83 81 76 70 79 66 74 68 72 76 80 81 81 83 86 86 81 80 83 88 91 90 90 90 90 90 88 87 87 88 87
79 82 82 79 83 71 72 60 58 69 70 77 74 77 81 83 83 80 78 80 83 89 90 84 92 92 89 91 88 88 88 89
76 74 74 74 74 76 78 74 65 63 69 79 78 80 81 84 86 83 78 81 79 79 88 90 91 87 80 90 89 89 89 89
71 79 80 80 77 78 68 65 72 72 74 79 77 78 80 84 86 85 83 82 79 75 74 76 78 76 78 76 84 87 89 88
66 73 77 74 77 78 80 79 69 66 71 78 77 75 75 79 82 82 81 83 84 83 79 79 75 71 71 73 78 79 86 87
64 66 74 70 72 75 76 69 70 73 75 75 74 75 74 73 74 77 77 78 81 81 80 82 81 78 72 71 73 79 81 83
71 71 71 71 71 72 71 74 70 75 76 81 81 77 76 73 71 72 74 75 77 76 77 78 77 78 77 70 70 71 76 74
65 68 69 67 70 71 73 74 75 76 77 84 84 80 75 72 71 69 71 74 77 77 77 77 77 77 76 75 73 74 70 69
60 68 67 62 70 70 71 73 74 72 78 80 76 75 73 72 71 70 70 72 76 77 77 78 79 77 77 75 73 74 70 70
61 63 51 68 72 72 69 72 74 75 75 77 76 72 73 74 72 69 67 65 64 64 65 65 69 72 72 72 73 72 71 71
55 58 63 65 67 66 64 68 72 72 72 72 69 68 64 70 71 69 66 63 62 63 62 61 60 63 64 64 65 66 66 68
60 52 48 59 69 74 72 60 71 72 67 65 65 59 64 70 72 66 64 61 59 59 59 59 58 60 59 61 62 62 65 65
56 56 61 67 70 73 57 58 70 66 66 65 63 63 71 71 66 63 60 59 59 58 56 57 60 60 59 58 59 63 67 71
60 55 50 67 70 62 64 70 72 67 62 59 62 67 67 61 58 57 55 56 57 57 56 57 59 60 58 59 63 65 69 70
59 56 65 68 66 69 70 67 70 68 62 63 64 67 63 57 57 56 56 56 57 58 59 58 60 61 58 61 67 68 69 68
60 63 65 67 71 71 70 70 71 70 65 65 66 63 62 59 56 55 56 56 60 59 57 57 60 60 62 64 67 68 67 67
59 63 66 68 68 69 69 70 68 70 68 59 63 59 57 55 57 59 58 61 61 60 59 58 60 61 64 64 68 68 68 68
56 65 65 64 67 70 69 68 69 67 62 57 56 53 53 54 55 56 58 62 61 62 61 60 61 61 62 64 67 69 68 71
64 68 68 68 69 70 68 69 69 69 67 62 60 56 55 53 53 56 57 55 58 62 63 62 62 62 63 65 66 66 68 67

GFSFLT2_sfc_temp_105.txt.gz
Temp
86 87 87 79 74 84 73 59 60 68 77 74 88 85 87 89 87 85 87 85 80 94 92 80 94 85 92 90 88 88 90 88
83 86 87 83 87 74 76 59 57 68 69 71 75 81 85 89 89 87 88 85 88 86 89 96 94 95 90 91 90 90 90 90
81 77 77 78 77 79 81 77 67 65 68 79 78 84 85 88 91 89 83 82 74 82 77 95 95 92 91 88 88 90 91 91
74 84 87 86 80 80 72 68 76 75 62 86 87 88 89 89 90 90 84 83 77 75 81 85 88 92 92 89 86 90 85 90
69 78 81 78 81 83 84 81 72 70 70 85 85 84 86 88 90 89 86 85 85 84 78 84 87 86 86 85 83 83 90 91
59 65 72 73 77 81 80 74 74 77 78 80 82 81 83 85 88 88 85 84 84 82 81 73 73 74 76 74 76 77 78 81
72 73 76 74 76 78 75 77 73 78 79 85 85 84 82 82 81 82 79 81 82 76 80 81 81 79 82 78 78 73 74 76
65 74 74 72 75 75 77 78 78 80 80 90 88 87 83 77 74 74 74 77 81 80 80 79 81 82 80 81 80 76 74 76
61 72 72 65 73 76 77 80 80 74 82 84 84 83 82 77 72 72 75 76 77 78 79 81 82 82 80 78 79 78 73 73
63 66 53 72 80 79 72 78 77 79 79 81 84 83 82 82 74 72 71 73 72 72 73 74 78 79 80 78 79 76 77 76
59 62 57 67 72 73 70 67 70 76 81 81 80 78 70 75 76 72 69 67 65 67 67 66 69 73 76 75 75 76 75 76
62 54 53 56 65 79 78 65 74 69 73 73 74 70 75 72 71 71 66 64 62 61 61 60 60 64 64 63 66 65 67 70
61 56 60 65 71 74 60 61 75 72 70 67 69 68 74 73 68 65 61 60 60 58 57 59 60 60 58 59 59 62 65 68
63 50 43 72 73 63 67 75 76 73 70 65 64 66 63 62 60 59 58 57 58 57 56 57 59 58 57 57 60 62 64 67
52 54 69 73 71 74 76 73 75 73 70 68 65 60 61 57 56 56 55 55 58 58 56 58 59 60 56 58 62 62 63 66
65 67 69 71 75 75 76 76 76 75 69 64 57 56 55 55 55 55 56 55 56 57 57 57 59 59 60 62 63 63 63 65
61 66 70 71 72 74 74 73 74 73 70 60 57 54 54 54 55 56 57 59 60 58 56 56 61 61 62 61 64 64 65 67
60 67 68 68 72 75 73 72 69 67 65 63 57 54 54 53 54 54 56 59 59 59 61 61 60 60 61 65 62 64 64 66
70 73 73 73 74 75 73 74 74 70 68 61 60 59 58 54 55 55 55 55 58 60 61 60 61 61 62 64 64 63 63 63

GFSFLT2_sfc_temp_108.txt.gz
Temp
87 88 85 77 72 83 64 61 63 59 67 77 77 80 79 79 78 81 82 83 84 85 81 78 85 80 78 84 84 84 85 84
85 88 87 83 85 72 74 56 54 57 59 54 72 77 81 78 79 82 84 85 86 84 76 78 83 88 80 78 85 85 86 85
82 77 76 78 76 77 79 74 61 50 53 65 72 80 82 82 81 82 85 86 86 81 79 75 84 84 85 86 86 86 87 85
73 85 87 84 79 79 70 66 72 68 62 75 68 68 77 87 83 83 86 88 86 81 78 75 73 81 84 86 87 88 87 86
69 76 83 78 81 82 81 80 69 67 66 72 69 68 86 87 87 87 86 85 84 82 72 69 68 68 73 78 78 78 81 79
60 60 71 72 77 80 79 71 72 74 72 77 78 81 83 86 86 85 84 82 84 85 78 72 67 67 72 75 79 78 77 79
69 73 74 72 73 76 75 77 72 76 76 78 81 83 86 86 86 83 82 83 83 83 83 77 74 73 72 72 77 79 78 77
67 73 74 72 74 75 78 79 78 79 77 85 77 77 83 83 80 80 79 81 78 81 80 79 77 77 76 77 78 79 76 76
61 70 70 63 73 73 77 80 80 74 74 83 76 71 65 76 77 77 78 78 77 81 79 78 79 80 78 81 81 78 76 76
61 65 52 70 75 74 76 79 77 76 74 70 71 67 58 71 74 71 72 69 70 74 75 78 78 77 77 79 77 77 76 77
58 59 65 68 66 68 65 70 74 72 71 72 70 67 65 68 70 68 64 63 63 63 64 67 68 74 76 76 76 75 76 75
61 56 50 61 68 75 76 63 75 74 71 69 67 57 60 71 69 64 62 61 61 61 61 60 62 66 65 65 69 69 74 73
61 56 58 63 68 75 56 58 70 74 71 69 64 60 61 63 60 60 59 58 59 59 58 59 60 61 60 61 60 63 65 68
55 46 46 66 68 59 67 68 68 68 72 69 67 64 61 60 58 58 57 57 59 57 56 58 60 59 58 58 60 62 63 64
52 54 57 65 61 72 77 74 71 71 67 62 57 57 57 55 55 55 55 56 57 58 57 57 58 59 57 58 61 61 61 62
58 57 54 71 75 76 77 73 73 69 63 60 54 55 54 54 54 54 54 55 57 57 56 55 58 58 59 61 61 61 60 62
65 62 64 71 73 75 73 75 70 67 64 61 57 54 54 54 54 55 56 57 58 56 55 56 59 59 59 60 62 61 61 63
59 70 67 68 73 76 71 69 70 67 64 64 62 57 55 53 54 54 55 58 57 58 57 57 57 57 59 63 62 60 60 62
63 71 66 72 75 77 74 72 72 68 67 63 63 61 58 55 55 55 56 56 57 58 59 58 59 58 61 60 61 60 62 61

GFSFLT2_sfc_temp_111.txt.gz
Temp
81 81 76 66 59 71 54 56 51 53 56 65 70 71 73 74 77 76 75 76 75 77 75 77 81 80 79 77 77 75 78 76
80 80 78 71 72 57 55 46 45 53 57 55 62 66 70 73 74 75 76 74 76 76 75 76 79 76 78 77 77 78 77 78
71 64 63 64 60 61 61 58 50 47 51 61 66 66 64 67 76 76 75 77 76 76 76 74 77 76 75 76 76 77 77 79
60 73 78 70 64 63 52 53 58 56 55 71 69 68 67 66 67 74 78 79 79 76 72 72 71 73 75 76 76 77 77 79
57 64 70 63 68 61 62 58 53 51 54 70 67 69 69 72 71 72 75 78 75 73 71 70 69 69 69 70 73 76 80 79
44 51 61 60 67 69 59 51 54 56 57 62 67 64 65 72 71 78 75 79 72 70 69 70 67 67 68 69 70 72 75 75
61 66 69 66 67 69 62 61 53 60 63 58 63 65 69 68 75 77 75 75 73 70 69 67 66 67 68 69 69 72 71 72
57 68 68 67 69 70 70 70 67 64 59 65 67 65 64 63 67 71 72 73 74 73 70 68 67 68 69 68 70 73 70 70
47 62 64 55 65 68 67 68 62 54 58 63 60 61 62 61 64 64 65 65 69 71 71 71 69 68 70 71 72 70 69 70
49 54 42 59 68 70 65 67 67 63 62 62 59 59 62 64 63 62 61 61 63 64 65 66 72 72 73 73 72 71 70 72
46 47 56 61 64 63 61 57 67 64 64 64 63 63 60 63 61 60 60 60 61 61 62 63 65 68 71 70 70 70 70 70
50 44 44 53 64 66 67 48 64 66 62 61 62 53 58 60 60 59 57 57 58 59 60 60 62 64 65 66 67 69 70 70
45 41 49 57 64 67 48 46 61 64 62 59 55 56 57 59 57 58 57 57 58 58 57 59 60 61 60 62 62 63 66 69
46 42 40 59 62 53 53 57 61 61 60 57 57 57 56 56 55 55 55 56 57 55 55 57 59 60 59 59 61 63 63 64
49 46 53 57 55 58 58 61 60 57 57 55 54 54 54 53 53 53 54 55 56 56 56 56 57 59 57 58 60 61 61 61
49 53 55 56 59 59 66 61 62 60 57 55 53 54 53 52 52 53 54 54 55 55 55 55 57 58 59 59 60 60 59 60
51 53 57 59 65 67 65 64 62 61 58 56 55 53 53 52 53 54 54 55 56 55 55 55 57 58 58 60 61 59 59 60
49 54 56 60 67 68 65 62 62 60 58 58 55 53 55 53 54 55 54 55 55 55 55 55 56 56 58 60 60 58 58 60
58 62 61 65 69 69 65 65 64 61 59 57 56 54 53 52 52 55 55 55 54 55 56 56 56 57 58 58 59 59 58 55

GFSFLT2_sfc_temp_114.txt.gz
Temp
74 72 68 59 54 64 50 54 50 51 57 63 68 67 67 71 75 74 74 73 74 74 74 77 78 77 77 75 74 72 72 73
72 73 71 65 66 52 51 44 44 49 54 54 61 63 67 68 71 76 74 72 75 75 73 76 79 78 76 75 75 75 74 74
63 59 61 61 56 55 56 54 47 44 50 63 65 65 67 69 72 73 73 74 74 75 73 74 77 77 75 74 73 73 75 73
57 67 69 64 58 55 50 51 53 50 54 68 67 67 67 68 71 71 73 74 75 74 71 71 73 76 75 75 75 76 76 77
52 58 63 58 61 53 53 50 50 49 54 66 67 65 65 65 70 71 72 74 76 72 69 71 71 72 73 73 74 72 76 74
43 51 56 56 61 61 52 46 47 53 55 60 61 59 62 65 69 70 74 74 76 71 70 70 70 70 70 69 69 70 71 72
61 62 65 63 62 64 55 54 50 57 54 56 59 59 62 63 66 65 67 68 70 70 70 69 68 69 70 70 70 70 70 70
50 64 64 63 63 62 62 60 58 57 53 59 62 64 62 62 63 62 63 62 68 67 67 67 67 67 68 68 70 71 70 70
44 59 58 50 60 60 58 59 56 51 55 59 57 60 61 61 63 62 62 62 62 66 67 66 67 67 67 66 67 70 70 70
43 47 41 50 63 65 59 61 59 58 58 58 58 60 60 61 60 61 61 61 61 62 63 64 66 66 68 67 67 69 69 69
41 41 48 55 56 56 58 52 61 59 61 61 61 60 56 59 59 57 58 60 60 61 61 63 63 66 69 68 69 68 69 69
41 38 40 46 58 63 61 45 61 61 57 56 57 52 54 56 57 57 57 57 58 59 60 61 60 65 66 67 68 68 68 68
42 41 47 55 57 61 47 46 59 61 56 53 53 55 56 57 56 57 56 56 57 57 56 59 60 62 61 62 62 65 68 69
43 41 40 58 59 53 52 54 57 57 56 56 55 54 54 54 54 55 54 56 57 56 56 57 59 60 59 59 61 63 64 64
45 45 50 53 54 57 56 56 55 57 55 54 52 53 54 53 53 54 54 54 56 56 56 56 57 59 58 59 61 61 59 58
47 49 51 54 58 61 59 57 57 56 54 52 53 53 52 52 53 52 54 54 56 56 55 56 57 58 59 59 60 61 59 56
46 49 52 56 59 60 61 59 57 57 55 52 52 52 53 52 53 53 53 55 55 55 54 55 57 58 58 60 61 58 58 57
44 50 50 54 59 62 59 57 56 55 53 54 51 50 53 53 53 53 53 54 54 54 55 54 52 54 57 59 59 58 58 59
55 56 55 59 62 64 60 59 59 56 55 52 52 51 51 49 50 54 54 51 52 53 55 55 55 56 56 56 56 55 56 57

GFSFLT2_sfc_temp_117.txt.gz
Temp
70 67 66 57 50 58 53 47 47 51 57 64 68 67 67 68 76 73 73 73 74 75 75 75 76 75 76 73 73 71 71 71
68 69 67 60 63 50 49 42 41 49 52 54 58 61 63 65 71 72 75 71 72 74 74 76 77 76 75 74 73 73 71 70
60 56 57 56 53 51 51 48 44 43 50 62 60 62 62 64 71 74 73 71 72 73 74 75 75 76 74 72 72 72 72 71
53 63 63 63 53 52 49 48 46 48 51 62 62 61 65 65 67 71 74 74 73 74 72 73 71 75 73 73 73 74 74 73
47 55 61 57 56 48 48 46 45 47 51 62 62 61 63 66 67 68 69 71 74 74 71 71 71 72 73 73 73 72 74 72
44 48 53 55 59 56 49 45 45 49 52 57 59 59 60 62 65 64 69 69 69 68 67 71 71 72 73 73 72 72 73 72
56 55 58 59 57 58 52 48 47 49 52 55 58 58 60 62 65 64 63 64 66 67 69 69 69 71 72 72 72 72 72 72
54 61 62 56 58 58 57 55 54 54 53 57 62 62 61 61 61 61 62 63 65 65 67 68 69 69 70 70 71 71 71 72
43 53 59 50 53 55 54 56 54 47 52 59 58 57 58 59 60 61 61 61 62 64 65 65 65 66 67 67 68 69 69 70
42 47 42 51 56 61 56 57 56 54 56 59 57 56 57 58 57 58 57 60 61 62 64 64 65 66 67 67 67 68 68 69
39 36 45 52 55 54 51 54 57 56 57 57 59 58 56 57 58 56 57 57 59 60 61 62 64 66 67 67 67 67 68 68
38 38 38 47 55 59 56 48 59 58 56 55 56 51 53 56 57 56 56 57 56 58 59 60 61 64 67 67 68 67 68 68
39 37 44 55 58 60 46 46 57 59 55 51 51 53 55 57 56 57 56 56 57 57 56 57 60 63 62 63 63 64 68 68
38 36 38 56 57 52 52 55 58 56 55 55 55 55 55 55 55 55 55 56 56 56 56 57 59 60 60 59 61 63 64 63
43 42 50 52 53 55 55 55 56 55 54 57 54 54 54 53 53 54 54 54 56 56 57 57 58 59 58 58 60 58 59 58
45 48 50 53 58 58 59 57 55 55 53 53 53 53 52 53 53 53 53 54 55 55 54 56 58 58 58 59 60 58 56 56
45 48 51 55 56 57 56 56 55 55 53 52 53 52 53 52 52 53 53 55 55 55 53 54 56 57 58 59 59 58 56 55
44 51 51 53 55 58 56 54 54 53 51 51 50 49 50 49 52 53 52 53 53 51 52 53 52 52 53 57 58 57 57 57
52 52 53 56 59 60 56 56 55 53 52 50 50 50 50 48 50 54 52 53 51 49 51 54 54 54 53 54 55 55 55 54

GFSFLT2_sfc_temp_120.txt.gz
Temp
66 64 62 54 49 55 47 52 48 50 55 63 66 67 69 72 73 70 72 72 73 74 74 74 74 73 74 72 72 71 72 71
64 67 63 57 60 49 48 43 41 49 52 51 57 61 63 65 69 72 73 72 73 74 74 74 77 77 74 73 73 73 71 72
58 54 55 54 54 50 52 50 47 42 47 57 55 58 62 64 67 68 70 71 72 73 74 75 76 76 74 72 72 72 72 72
52 59 59 57 54 52 49 47 45 46 48 61 60 60 63 64 66 68 70 70 72 72 72 71 72 76 74 72 72 73 73 72
47 53 57 54 54 47 46 45 45 46 47 63 60 60 60 62 66 67 69 69 70 70 70 70 71 72 73 72 73 72 72 72
41 47 51 51 56 53 47 45 47 47 52 58 58 58 59 61 62 66 68 70 68 68 68 69 71 70 71 72 73 72 72 72
52 55 56 54 54 55 49 46 45 49 54 55 56 58 60 61 62 64 64 66 67 66 68 69 69 68 70 72 72 72 72 72
52 59 60 54 55 56 54 55 55 55 52 59 60 60 60 61 60 60 62 63 66 67 67 68 68 69 70 71 70 72 72 72
42 51 56 51 52 53 53 53 52 47 53 60 56 57 57 57 58 58 59 61 63 65 65 66 66 67 66 67 69 69 69 69
44 44 37 46 57 58 54 55 54 55 57 59 56 56 57 57 57 57 58 58 59 60 62 65 66 66 67 67 67 68 68 69
39 37 43 51 55 54 54 52 57 55 59 59 57 57 56 58 58 56 57 57 57 59 60 61 62 65 67 67 67 67 67 68
38 36 36 47 56 59 58 47 61 59 56 55 58 50 53 57 58 57 57 57 57 58 59 59 60 63 66 66 67 67 67 68
37 37 44 53 57 57 47 49 61 61 58 54 52 53 55 57 56 57 56 57 58 58 57 57 60 63 64 64 63 65 67 68
37 36 38 54 55 49 50 55 59 57 54 55 54 55 55 55 55 55 55 56 56 57 56 57 59 60 59 59 60 63 63 63
42 41 49 52 52 55 55 55 56 54 54 57 54 54 54 53 54 54 54 54 56 56 57 57 57 58 57 58 59 58 59 58
45 47 49 53 56 57 58 57 55 54 57 57 54 54 53 53 53 53 54 54 56 55 56 55 57 58 57 58 58 57 56 55
44 48 50 54 55 57 56 56 54 54 53 53 52 53 54 53 52 51 52 54 56 55 54 54 56 56 58 59 59 57 55 55
44 50 51 52 55 57 55 55 54 53 51 52 51 50 50 50 51 52 51 54 54 53 55 55 54 53 54 57 59 58 58 56
52 52 53 55 57 59 56 55 55 54 52 50 51 51 50 49 51 53 53 53 51 51 54 54 54 52 54 54 55 56 57 56

GFSFLT2_sfc_temp_123.txt.gz
Temp
72 72 73 64 62 68 61 62 59 61 65 70 72 71 74 77 74 76 78 82 83 83 83 83 83 82 82 81 80 81 82 81
70 73 70 68 70 59 62 51 48 59 59 63 62 63 69 71 73 76 79 76 76 77 83 83 85 85 84 83 81 82 83 83
69 67 66 64 64 62 64 61 56 56 58 63 61 62 68 71 77 81 78 79 77 76 82 84 85 86 84 83 82 82 83 83
63 70 70 70 69 68 62 57 63 61 61 66 64 66 68 70 74 79 81 77 76 76 77 81 81 83 84 83 83 83 83 82
61 68 70 67 68 66 65 65 61 60 63 68 67 66 67 67 72 76 72 72 72 74 74 75 79 75 81 82 83 84 83 82
58 61 66 63 65 65 66 62 64 65 63 64 64 63 65 67 70 74 74 71 71 73 76 77 77 76 79 79 74 81 82 81
65 65 64 63 63 64 62 62 60 64 62 63 63 63 63 66 67 67 71 73 73 75 74 73 74 75 77 79 73 74 77 76
61 65 66 62 65 65 62 61 61 62 60 66 63 64 62 61 60 60 61 63 70 71 72 71 76 77 78 74 72 78 72 76
57 60 63 58 64 65 63 62 63 57 63 65 61 59 58 59 59 59 60 60 61 62 66 72 71 70 77 77 76 72 75 76
58 59 48 61 63 64 64 62 63 62 64 63 59 58 58 59 58 58 58 59 59 60 62 64 65 70 71 73 73 71 73 70
54 54 57 60 62 61 63 61 64 62 62 61 61 61 58 59 59 58 58 59 60 60 61 62 63 65 67 70 71 68 68 69
51 49 47 58 61 66 64 57 66 67 65 63 61 59 59 58 59 59 59 58 58 59 61 62 62 64 65 68 70 68 70 70
52 51 56 61 63 64 53 59 68 69 68 66 62 63 58 59 58 59 58 58 59 59 59 60 61 64 64 65 65 67 69 73
51 49 48 63 62 57 61 63 66 65 63 63 59 58 58 58 58 61 59 59 59 58 57 59 61 61 59 59 62 65 66 65
58 59 60 63 63 65 62 62 64 64 64 63 60 59 58 57 58 59 59 58 60 60 60 61 63 61 59 58 60 60 59 58
56 60 60 63 64 66 65 65 66 65 63 63 60 59 60 59 57 58 59 60 62 62 61 59 63 65 61 60 59 58 56 57
58 61 61 63 65 66 64 64 63 64 63 63 62 61 59 58 57 59 61 63 63 60 59 59 60 61 63 63 59 57 58 56
61 65 65 64 67 66 63 63 63 61 60 62 62 60 61 59 60 61 61 62 59 61 58 59 59 60 63 64 60 59 58 57
66 64 65 66 68 68 66 65 63 63 63 60 61 61 61 59 60 58 61 61 61 60 61 62 61 60 61 63 63 61 61 58